Wetterdaten: Mittwoch, 02.10.2019
Datum Zeit Temp. Aussen Temp. o. S. +5cm Feuchte Auss Luftdruck Regen Sonnenschein Regendauer Solar Windben Empfang
02.10.2019 00:00 15,2 C 13,9 C 18,3 C 97 % 1000,1 hPa 0,0 l/m 0 min 2 min 0 W/m 25,7 km/h (4 Bft) 100,00 %
02.10.2019 00:02 15,2 C 13,9 C 18,3 C 97 % 999,9 hPa 0,0 l/m 0 min 2 min 0 W/m 22,5 km/h (4 Bft) 97,78 %
02.10.2019 00:04 15,2 C 13,9 C 18,3 C 97 % 1000,0 hPa 0,2 l/m 0 min 2 min 0 W/m 12,9 km/h (3 Bft) 97,87 %
02.10.2019 00:08 15,2 C 13,9 C 18,3 C 98 % 1000,0 hPa 0,2 l/m 0 min 4 min 0 W/m 16,1 km/h (3 Bft) 100,00 %
02.10.2019 00:10 15,2 C 13,9 C 18,3 C 98 % 1000,0 hPa 0,4 l/m 0 min 2 min 0 W/m 9,7 km/h (2 Bft) 100,00 %
02.10.2019 00:12 15,2 C 13,9 C 18,3 C 98 % 1000,1 hPa 0,2 l/m 0 min 2 min 0 W/m 12,9 km/h (3 Bft) 95,74 %
02.10.2019 00:14 15,2 C 13,9 C 18,3 C 98 % 1000,1 hPa 0,2 l/m 0 min 2 min 0 W/m 6,4 km/h (2 Bft) 100,00 %
02.10.2019 00:16 15,2 C 13,9 C 18,3 C 98 % 1000,0 hPa 0,0 l/m 0 min 2 min 0 W/m 6,4 km/h (2 Bft) 100,00 %
02.10.2019 00:18 15,2 C 13,9 C 18,3 C 98 % 1000,0 hPa 0,2 l/m 0 min 2 min 0 W/m 9,7 km/h (2 Bft) 100,00 %
02.10.2019 00:20 15,1 C 13,9 C 18,3 C 98 % 999,9 hPa 0,0 l/m 0 min 2 min 0 W/m 12,9 km/h (3 Bft) 100,00 %
02.10.2019 00:22 15,1 C 13,9 C 18,3 C 98 % 999,9 hPa 0,2 l/m 0 min 2 min 0 W/m 9,7 km/h (2 Bft) 100,00 %
02.10.2019 00:24 15,1 C 13,9 C 18,3 C 98 % 999,9 hPa 0,0 l/m 0 min 2 min 0 W/m 12,9 km/h (3 Bft) 100,00 %
02.10.2019 00:26 15,1 C 13,9 C 18,3 C 98 % 999,9 hPa 0,2 l/m 0 min 2 min 0 W/m 9,7 km/h (2 Bft) 100,00 %
02.10.2019 00:28 15,1 C 13,9 C 18,3 C 98 % 999,9 hPa 0,2 l/m 0 min 2 min 0 W/m 12,9 km/h (3 Bft) 100,00 %
02.10.2019 00:30 15,1 C 13,9 C 18,3 C 98 % 999,9 hPa 0,0 l/m 0 min 2 min 0 W/m 12,9 km/h (3 Bft) 100,00 %
02.10.2019 00:32 15,1 C 13,9 C 18,3 C 98 % 999,9 hPa 0,2 l/m 0 min 2 min 0 W/m 6,4 km/h (2 Bft) 97,87 %
02.10.2019 00:34 15,0 C 13,9 C 18,3 C 98 % 999,9 hPa 0,0 l/m 0 min 2 min 0 W/m 16,1 km/h (3 Bft) 100,00 %
02.10.2019 00:36 15,0 C 13,3 C 18,3 C 98 % 999,9 hPa 0,0 l/m 0 min 2 min 0 W/m 16,1 km/h (3 Bft) 100,00 %
02.10.2019 00:38 15,0 C 13,3 C 18,3 C 98 % 999,9 hPa 0,0 l/m 0 min 2 min 0 W/m 16,1 km/h (3 Bft) 100,00 %
02.10.2019 00:40 14,9 C 13,3 C 18,3 C 98 % 999,9 hPa 0,0 l/m 0 min 2 min 0 W/m 16,1 km/h (3 Bft) 97,87 %
02.10.2019 00:42 14,9 C 13,3 C 18,3 C 98 % 999,9 hPa 0,0 l/m 0 min 0 min 0 W/m 12,9 km/h (3 Bft) 100,00 %
02.10.2019 00:44 14,9 C 13,3 C 18,3 C 98 % 999,9 hPa 0,0 l/m 0 min 0 min 0 W/m 6,4 km/h (2 Bft) 97,87 %
02.10.2019 00:46 14,9 C 13,3 C 18,3 C 98 % 1000,0 hPa 0,0 l/m 0 min 0 min 0 W/m 6,4 km/h (2 Bft) 97,83 %
02.10.2019 00:48 14,9 C 13,3 C 18,3 C 98 % 999,9 hPa 0,2 l/m 0 min 2 min 0 W/m 6,4 km/h (2 Bft) 97,87 %
02.10.2019 00:50 14,9 C 13,3 C 18,3 C 98 % 999,9 hPa 0,0 l/m 0 min 2 min 0 W/m 6,4 km/h (2 Bft) 100,00 %
02.10.2019 00:52 14,9 C 13,3 C 18,3 C 98 % 999,9 hPa 0,0 l/m 0 min 2 min 0 W/m 12,9 km/h (3 Bft) 100,00 %
02.10.2019 00:54 14,8 C 13,3 C 18,3 C 98 % 999,9 hPa 0,0 l/m 0 min 2 min 0 W/m 6,4 km/h (2 Bft) 97,87 %
02.10.2019 00:56 14,8 C 13,3 C 18,3 C 98 % 999,9 hPa 0,0 l/m 0 min 2 min 0 W/m 3,2 km/h (1 Bft) 97,87 %
02.10.2019 00:58 14,8 C 13,3 C 18,3 C 98 % 999,9 hPa 0,0 l/m 0 min 2 min 0 W/m 3,2 km/h (1 Bft) 95,65 %
02.10.2019 01:00 14,8 C 13,3 C 18,3 C 98 % 999,9 hPa 0,2 l/m 0 min 0 min 0 W/m 9,7 km/h (2 Bft) 97,87 %
02.10.2019 01:02 14,8 C 13,3 C 18,3 C 98 % 1000,0 hPa 0,0 l/m 0 min 0 min 0 W/m 9,7 km/h (2 Bft) 97,87 %
02.10.2019 01:04 14,8 C 13,3 C 18,3 C 98 % 1000,0 hPa 0,0 l/m 0 min 0 min 0 W/m 6,4 km/h (2 Bft) 97,87 %
02.10.2019 01:06 14,8 C 13,3 C 18,3 C 98 % 1000,0 hPa 0,0 l/m 0 min 0 min 0 W/m 12,9 km/h (3 Bft) 95,74 %
02.10.2019 01:08 14,8 C 13,3 C 18,3 C 98 % 999,9 hPa 0,0 l/m 0 min 0 min 0 W/m 6,4 km/h (2 Bft) 95,74 %
02.10.2019 01:10 14,7 C 13,3 C 18,3 C 98 % 1000,0 hPa 0,0 l/m 0 min 0 min 0 W/m 12,9 km/h (3 Bft) 95,65 %
02.10.2019 01:12 14,7 C 13,3 C 18,3 C 98 % 1000,0 hPa 0,0 l/m 0 min 0 min 0 W/m 6,4 km/h (2 Bft) 95,74 %
02.10.2019 01:14 14,7 C 13,3 C 18,3 C 98 % 1000,0 hPa 0,0 l/m 0 min 0 min 0 W/m 12,9 km/h (3 Bft) 93,62 %
02.10.2019 01:16 14,7 C 13,3 C 18,3 C 98 % 1000,0 hPa 0,0 l/m 0 min 0 min 0 W/m 9,7 km/h (2 Bft) 95,74 %
02.10.2019 01:18 14,7 C 13,3 C 18,3 C 98 % 1000,0 hPa 0,0 l/m 0 min 0 min 0 W/m 6,4 km/h (2 Bft) 95,74 %
02.10.2019 01:20 14,7 C 13,3 C 18,3 C 98 % 1000,0 hPa 0,0 l/m 0 min 0 min 0 W/m 3,2 km/h (1 Bft) 95,74 %
02.10.2019 01:22 14,7 C 13,3 C 18,3 C 98 % 1000,1 hPa 0,0 l/m 0 min 0 min 0 W/m 12,9 km/h (3 Bft) 95,65 %
02.10.2019 01:24 14,6 C 13,3 C 18,3 C 98 % 1000,1 hPa 0,0 l/m 0 min 0 min 0 W/m 0,0 km/h (0 Bft) 95,74 %
02.10.2019 01:26 14,6 C 13,3 C 18,3 C 98 % 1000,1 hPa 0,0 l/m 0 min 0 min 0 W/m 6,4 km/h (2 Bft) 93,62 %
02.10.2019 01:28 14,6 C 13,3 C 18,3 C 98 % 1000,0 hPa 0,0 l/m 0 min 0 min 0 W/m 6,4 km/h (2 Bft) 93,62 %
02.10.2019 01:30 14,5 C 13,3 C 18,3 C 98 % 1000,1 hPa 0,0 l/m 0 min 0 min 0 W/m 16,1 km/h (3 Bft) 95,74 %
02.10.2019 01:32 14,5 C 13,3 C 18,3 C 98 % 1000,1 hPa 0,0 l/m 0 min 0 min 0 W/m 12,9 km/h (3 Bft) 95,65 %
02.10.2019 01:34 14,4 C 13,3 C 18,3 C 98 % 1000,1 hPa 0,0 l/m 0 min 0 min 0 W/m 9,7 km/h (2 Bft) 95,74 %
02.10.2019 01:36 14,4 C 13,3 C 18,3 C 98 % 1000,1 hPa 0,0 l/m 0 min 0 min 0 W/m 3,2 km/h (1 Bft) 95,74 %
02.10.2019 01:38 14,4 C 13,3 C 18,3 C 98 % 1000,1 hPa 0,0 l/m 0 min 0 min 0 W/m 9,7 km/h (2 Bft) 95,74 %
02.10.2019 01:40 14,3 C 12,8 C 18,3 C 98 % 1000,1 hPa 0,0 l/m 0 min 0 min 0 W/m 9,7 km/h (2 Bft) 95,74 %
02.10.2019 01:42 14,3 C 12,8 C 18,3 C 98 % 1000,2 hPa 0,0 l/m 0 min 0 min 0 W/m 6,4 km/h (2 Bft) 95,74 %
02.10.2019 01:44 14,3 C 13,3 C 18,3 C 98 % 1000,1 hPa 0,0 l/m 0 min 0 min 0 W/m 6,4 km/h (2 Bft) 93,48 %
02.10.2019 01:46 14,3 C 13,3 C 18,3 C 98 % 1000,2 hPa 0,0 l/m 0 min 0 min 0 W/m 12,9 km/h (3 Bft) 93,62 %
02.10.2019 01:48 14,2 C 13,3 C 18,3 C 98 % 1000,2 hPa 0,0 l/m 0 min 0 min 0 W/m 6,4 km/h (2 Bft) 91,49 %
02.10.2019 01:50 14,2 C 13,3 C 18,3 C 98 % 1000,2 hPa 0,0 l/m 0 min 0 min 0 W/m 9,7 km/h (2 Bft) 91,49 %
02.10.2019 01:52 14,2 C 13,3 C 18,3 C 98 % 1000,2 hPa 0,0 l/m 0 min 0 min 0 W/m 3,2 km/h (1 Bft) 93,62 %
02.10.2019 01:54 14,2 C 13,3 C 18,3 C 98 % 1000,3 hPa 0,0 l/m 0 min 0 min 0 W/m 6,4 km/h (2 Bft) 95,74 %
02.10.2019 01:56 14,2 C 13,3 C 18,3 C 98 % 1000,3 hPa 0,0 l/m 0 min 0 min 0 W/m 6,4 km/h (2 Bft) 91,30 %
02.10.2019 01:58 14,2 C 13,3 C 18,3 C 98 % 1000,3 hPa 0,0 l/m 0 min 0 min 0 W/m 3,2 km/h (1 Bft) 93,62 %
02.10.2019 02:00 14,2 C 13,3 C 18,3 C 98 % 1000,3 hPa 0,0 l/m 0 min 0 min 0 W/m 6,4 km/h (2 Bft) 93,62 %
02.10.2019 02:02 14,2 C 13,3 C 18,3 C 98 % 1000,3 hPa 0,0 l/m 0 min 0 min 0 W/m 6,4 km/h (2 Bft) 97,87 %
02.10.2019 02:04 14,2 C 13,3 C 18,3 C 99 % 1000,3 hPa 0,0 l/m 0 min 0 min 0 W/m 16,1 km/h (3 Bft) 95,74 %
02.10.2019 02:06 14,2 C 13,3 C 18,3 C 99 % 1000,2 hPa 0,0 l/m 0 min 0 min 0 W/m 6,4 km/h (2 Bft) 93,62 %
02.10.2019 02:08 14,2 C 13,3 C 18,3 C 99 % 1000,3 hPa 0,0 l/m 0 min 0 min 0 W/m 3,2 km/h (1 Bft) 97,83 %
02.10.2019 02:10 14,2 C 13,3 C 18,3 C 99 % 1000,6 hPa 0,0 l/m 0 min 0 min 0 W/m 3,2 km/h (1 Bft) 95,74 %
02.10.2019 02:12 14,2 C 12,8 C 18,3 C 99 % 1000,7 hPa 0,0 l/m 0 min 0 min 0 W/m 3,2 km/h (1 Bft) 97,87 %
02.10.2019 02:14 14,2 C 12,8 C 18,3 C 99 % 1000,7 hPa 0,0 l/m 0 min 0 min 0 W/m 6,4 km/h (2 Bft) 95,74 %
02.10.2019 02:16 14,2 C 12,8 C 18,3 C 99 % 1000,7 hPa 0,0 l/m 0 min 2 min 0 W/m 9,7 km/h (2 Bft) 97,87 %
02.10.2019 02:18 14,2 C 12,8 C 18,3 C 99 % 1000,8 hPa 0,0 l/m 0 min 2 min 0 W/m 3,2 km/h (1 Bft) 97,83 %
02.10.2019 02:20 14,1 C 12,2 C 18,3 C 99 % 1000,8 hPa 0,0 l/m 0 min 2 min 0 W/m 9,7 km/h (2 Bft) 97,87 %
02.10.2019 02:22 13,9 C 12,2 C 18,3 C 98 % 1000,9 hPa 0,0 l/m 0 min 2 min 0 W/m 6,4 km/h (2 Bft) 97,87 %
02.10.2019 02:24 13,8 C 11,7 C 18,3 C 98 % 1000,9 hPa 0,0 l/m 0 min 2 min 0 W/m 12,9 km/h (3 Bft) 93,62 %
02.10.2019 02:26 13,7 C 11,7 C 18,3 C 98 % 1001,0 hPa 0,2 l/m 0 min 2 min 0 W/m 6,4 km/h (2 Bft) 97,87 %
02.10.2019 02:28 13,6 C 11,7 C 18,3 C 98 % 1001,0 hPa 0,0 l/m 0 min 0 min 0 W/m 9,7 km/h (2 Bft) 97,87 %
02.10.2019 02:30 13,4 C 11,7 C 18,3 C 98 % 1001,1 hPa 0,0 l/m 0 min 0 min 0 W/m 6,4 km/h (2 Bft) 95,65 %
02.10.2019 02:32 13,3 C 11,1 C 18,3 C 98 % 1001,1 hPa 0,0 l/m 0 min 0 min 0 W/m 6,4 km/h (2 Bft) 97,87 %
02.10.2019 02:34 13,2 C 11,1 C 18,3 C 98 % 1001,2 hPa 0,0 l/m 0 min 0 min 0 W/m 6,4 km/h (2 Bft) 100,00 %
02.10.2019 02:36 13,0 C 11,1 C 18,3 C 98 % 1001,3 hPa 0,0 l/m 0 min 0 min 0 W/m 16,1 km/h (3 Bft) 97,87 %
02.10.2019 02:38 12,8 C 11,1 C 18,3 C 98 % 1001,2 hPa 0,0 l/m 0 min 0 min 0 W/m 9,7 km/h (2 Bft) 100,00 %
02.10.2019 02:40 12,7 C 10,6 C 18,3 C 97 % 1001,3 hPa 0,0 l/m 0 min 2 min 0 W/m 12,9 km/h (3 Bft) 100,00 %
02.10.2019 02:42 12,6 C 10,6 C 18,3 C 98 % 1001,4 hPa 0,0 l/m 0 min 2 min 0 W/m 22,5 km/h (4 Bft) 100,00 %
02.10.2019 02:44 12,5 C 10,6 C 18,3 C 98 % 1001,3 hPa 0,0 l/m 0 min 2 min 0 W/m 3,2 km/h (1 Bft) 97,87 %
02.10.2019 02:46 12,3 C 10,6 C 18,3 C 97 % 1001,4 hPa 0,0 l/m 0 min 2 min 0 W/m 16,1 km/h (3 Bft) 97,87 %
02.10.2019 02:48 12,2 C 10,6 C 18,3 C 97 % 1001,4 hPa 0,0 l/m 0 min 2 min 0 W/m 12,9 km/h (3 Bft) 100,00 %
02.10.2019 02:50 12,1 C 10,6 C 18,3 C 97 % 1001,4 hPa 0,0 l/m 0 min 2 min 0 W/m 6,4 km/h (2 Bft) 100,00 %
02.10.2019 02:52 12,0 C 10,0 C 18,3 C 97 % 1001,5 hPa 0,0 l/m 0 min 2 min 0 W/m 9,7 km/h (2 Bft) 97,87 %
02.10.2019 02:54 11,9 C 10,0 C 18,3 C 97 % 1001,6 hPa 0,0 l/m 0 min 0 min 0 W/m 9,7 km/h (2 Bft) 97,83 %
02.10.2019 02:56 11,7 C 10,0 C 18,3 C 97 % 1001,6 hPa 0,0 l/m 0 min 0 min 0 W/m 9,7 km/h (2 Bft) 100,00 %
02.10.2019 02:58 11,6 C 10,0 C 18,3 C 97 % 1001,6 hPa 0,0 l/m 0 min 0 min 0 W/m 6,4 km/h (2 Bft) 100,00 %
02.10.2019 03:00 11,5 C 10,0 C 18,3 C 97 % 1001,6 hPa 0,0 l/m 0 min 0 min 0 W/m 12,9 km/h (3 Bft) 100,00 %
02.10.2019 03:02 11,4 C 10,0 C 18,3 C 97 % 1001,8 hPa 0,0 l/m 0 min 0 min 0 W/m 19,3 km/h (3 Bft) 97,87 %
02.10.2019 03:04 11,3 C 10,0 C 18,3 C 97 % 1001,9 hPa 0,0 l/m 0 min 0 min 0 W/m 6,4 km/h (2 Bft) 100,00 %
02.10.2019 03:06 11,3 C 10,0 C 18,3 C 97 % 1001,9 hPa 0,0 l/m 0 min 0 min 0 W/m 0,0 km/h (0 Bft) 100,00 %
02.10.2019 03:08 11,3 C 10,0 C 18,3 C 97 % 1002,0 hPa 0,0 l/m 0 min 0 min 0 W/m 12,9 km/h (3 Bft) 100,00 %
02.10.2019 03:10 11,2 C 10,0 C 18,3 C 97 % 1002,0 hPa 0,0 l/m 0 min 0 min 0 W/m 16,1 km/h (3 Bft) 100,00 %
02.10.2019 03:12 11,1 C 9,4 C 18,3 C 97 % 1002,1 hPa 0,0 l/m 0 min 0 min 0 W/m 6,4 km/h (2 Bft) 97,87 %
02.10.2019 03:14 11,1 C 10,0 C 18,3 C 98 % 1002,1 hPa 0,0 l/m 0 min 0 min 0 W/m 3,2 km/h (1 Bft) 100,00 %
02.10.2019 03:16 11,1 C 10,0 C 18,3 C 98 % 1002,2 hPa 0,0 l/m 0 min 0 min 0 W/m 6,4 km/h (2 Bft) 100,00 %
02.10.2019 03:18 11,0 C 10,0 C 18,3 C 98 % 1002,1 hPa 0,0 l/m 0 min 0 min 0 W/m 3,2 km/h (1 Bft) 97,83 %
02.10.2019 03:20 11,0 C 10,0 C 18,3 C 97 % 1002,3 hPa 0,0 l/m 0 min 0 min 0 W/m 3,2 km/h (1 Bft) 97,87 %
02.10.2019 03:22 11,0 C 9,4 C 18,3 C 98 % 1002,3 hPa 0,0 l/m 0 min 0 min 0 W/m 16,1 km/h (3 Bft) 100,00 %
02.10.2019 03:24 10,9 C 9,4 C 18,3 C 98 % 1002,3 hPa 0,0 l/m 0 min 0 min 0 W/m 19,3 km/h (3 Bft) 100,00 %
02.10.2019 03:26 10,9 C 9,4 C 18,3 C 98 % 1002,3 hPa 0,0 l/m 0 min 0 min 0 W/m 6,4 km/h (2 Bft) 100,00 %
02.10.2019 03:28 10,9 C 9,4 C 18,3 C 98 % 1002,4 hPa 0,0 l/m 0 min 0 min 0 W/m 9,7 km/h (2 Bft) 100,00 %
02.10.2019 03:30 10,8 C 9,4 C 18,3 C 98 % 1002,4 hPa 0,0 l/m 0 min 0 min 0 W/m 6,4 km/h (2 Bft) 100,00 %
02.10.2019 03:32 10,8 C 9,4 C 18,3 C 98 % 1002,4 hPa 0,0 l/m 0 min 0 min 0 W/m 6,4 km/h (2 Bft) 100,00 %
02.10.2019 03:34 10,8 C 9,4 C 18,3 C 98 % 1002,5 hPa 0,0 l/m 0 min 0 min 0 W/m 6,4 km/h (2 Bft) 100,00 %
02.10.2019 03:36 10,8 C 9,4 C 18,3 C 98 % 1002,5 hPa 0,0 l/m 0 min 0 min 0 W/m 19,3 km/h (3 Bft) 100,00 %
02.10.2019 03:38 10,8 C 9,4 C 18,3 C 98 % 1002,5 hPa 0,0 l/m 0 min 0 min 0 W/m 3,2 km/h (1 Bft) 97,87 %
02.10.2019 03:40 10,8 C 9,4 C 18,3 C 98 % 1002,6 hPa 0,0 l/m 0 min 0 min 0 W/m 3,2 km/h (1 Bft) 100,00 %
02.10.2019 03:42 10,8 C 9,4 C 18,3 C 98 % 1002,6 hPa 0,0 l/m 0 min 0 min 0 W/m 9,7 km/h (2 Bft) 100,00 %
02.10.2019 03:44 10,7 C 9,4 C 18,3 C 98 % 1002,7 hPa 0,0 l/m 0 min 0 min 0 W/m 16,1 km/h (3 Bft) 100,00 %
02.10.2019 03:46 10,7 C 9,4 C 18,3 C 98 % 1002,7 hPa 0,0 l/m 0 min 0 min 0 W/m 3,2 km/h (1 Bft) 100,00 %
02.10.2019 03:48 10,7 C 9,4 C 18,3 C 98 % 1002,7 hPa 0,0 l/m 0 min 0 min 0 W/m 9,7 km/h (2 Bft) 100,00 %
02.10.2019 03:50 10,7 C 9,4 C 18,3 C 98 % 1002,7 hPa 0,0 l/m 0 min 0 min 0 W/m 16,1 km/h (3 Bft) 100,00 %
02.10.2019 03:52 10,6 C 9,4 C 18,3 C 98 % 1002,8 hPa 0,0 l/m 0 min 0 min 0 W/m 6,4 km/h (2 Bft) 100,00 %
02.10.2019 03:54 10,6 C 9,4 C 18,3 C 98 % 1002,8 hPa 0,0 l/m 0 min 0 min 0 W/m 9,7 km/h (2 Bft) 97,87 %
02.10.2019 03:56 10,6 C 9,4 C 18,3 C 98 % 1002,8 hPa 0,0 l/m 0 min 0 min 0 W/m 3,2 km/h (1 Bft) 100,00 %
02.10.2019 03:58 10,5 C 9,4 C 18,3 C 98 % 1002,9 hPa 0,0 l/m 0 min 0 min 0 W/m 6,4 km/h (2 Bft) 100,00 %
02.10.2019 04:00 10,5 C 9,4 C 18,3 C 98 % 1002,9 hPa 0,0 l/m 0 min 0 min 0 W/m 12,9 km/h (3 Bft) 97,87 %
02.10.2019 04:02 10,4 C 9,4 C 18,3 C 98 % 1003,0 hPa 0,0 l/m 0 min 0 min 0 W/m 6,4 km/h (2 Bft) 91,67 %
02.10.2019 04:04 10,4 C 9,4 C 18,3 C 98 % 1003,0 hPa 0,0 l/m 0 min 0 min 0 W/m 6,4 km/h (2 Bft) 97,83 %
02.10.2019 04:06 10,4 C 8,9 C 18,3 C 98 % 1003,1 hPa 0,0 l/m 0 min 0 min 0 W/m 12,9 km/h (3 Bft) 100,00 %
02.10.2019 04:08 10,3 C 8,9 C 18,3 C 98 % 1003,2 hPa 0,0 l/m 0 min 0 min 0 W/m 9,7 km/h (2 Bft) 97,87 %
02.10.2019 04:10 10,3 C 8,9 C 18,3 C 98 % 1003,2 hPa 0,0 l/m 0 min 0 min 0 W/m 19,3 km/h (3 Bft) 97,87 %
02.10.2019 04:12 10,2 C 8,9 C 18,3 C 98 % 1003,2 hPa 0,0 l/m 0 min 0 min 0 W/m 9,7 km/h (2 Bft) 97,87 %
02.10.2019 04:14 10,2 C 8,9 C 18,3 C 98 % 1003,2 hPa 0,0 l/m 0 min 0 min 0 W/m 0,0 km/h (0 Bft) 97,87 %
02.10.2019 04:16 10,2 C 8,9 C 18,3 C 98 % 1003,3 hPa 0,0 l/m 0 min 0 min 0 W/m 3,2 km/h (1 Bft) 97,83 %
02.10.2019 04:18 10,2 C 8,9 C 18,3 C 98 % 1003,4 hPa 0,0 l/m 0 min 0 min 0 W/m 6,4 km/h (2 Bft) 97,87 %
02.10.2019 04:20 10,2 C 8,9 C 18,3 C 98 % 1003,4 hPa 0,0 l/m 0 min 0 min 0 W/m 19,3 km/h (3 Bft) 97,87 %
02.10.2019 04:22 10,1 C 8,9 C 18,3 C 98 % 1003,4 hPa 0,0 l/m 0 min 0 min 0 W/m 9,7 km/h (2 Bft) 97,87 %
02.10.2019 04:24 10,1 C 8,9 C 18,3 C 98 % 1003,6 hPa 0,0 l/m 0 min 0 min 0 W/m 3,2 km/h (1 Bft) 97,87 %
02.10.2019 04:26 10,1 C 8,9 C 18,3 C 98 % 1003,6 hPa 0,0 l/m 0 min 0 min 0 W/m 16,1 km/h (3 Bft) 97,83 %
02.10.2019 04:28 10,0 C 8,9 C 18,3 C 98 % 1003,6 hPa 0,0 l/m 0 min 0 min 0 W/m 9,7 km/h (2 Bft) 97,87 %
02.10.2019 04:30 10,0 C 8,9 C 18,3 C 98 % 1003,7 hPa 0,0 l/m 0 min 0 min 0 W/m 3,2 km/h (1 Bft) 95,74 %
02.10.2019 04:32 9,9 C 8,9 C 18,3 C 98 % 1003,7 hPa 0,0 l/m 0 min 0 min 0 W/m 12,9 km/h (3 Bft) 100,00 %
02.10.2019 04:34 9,9 C 8,9 C 18,3 C 98 % 1003,8 hPa 0,0 l/m 0 min 0 min 0 W/m 12,9 km/h (3 Bft) 94,00 %
02.10.2019 04:36 9,9 C 8,3 C 18,3 C 98 % 1003,9 hPa 0,0 l/m 0 min 0 min 0 W/m 3,2 km/h (1 Bft) 95,65 %
02.10.2019 04:38 9,8 C 8,9 C 18,3 C 98 % 1003,9 hPa 0,0 l/m 0 min 0 min 0 W/m 9,7 km/h (2 Bft) 95,74 %
02.10.2019 04:40 9,8 C 8,9 C 18,3 C 98 % 1004,0 hPa 0,0 l/m 0 min 0 min 0 W/m 6,4 km/h (2 Bft) 96,23 %
02.10.2019 04:42 9,8 C 8,9 C 18,3 C 98 % 1004,1 hPa 0,0 l/m 0 min 0 min 0 W/m 3,2 km/h (1 Bft) 92,11 %
02.10.2019 04:44 9,8 C 8,3 C 18,3 C 98 % 1004,2 hPa 0,0 l/m 0 min 0 min 0 W/m 9,7 km/h (2 Bft) 92,00 %
02.10.2019 04:46 9,7 C 8,3 C 18,3 C 98 % 1004,2 hPa 0,0 l/m 0 min 0 min 0 W/m 3,2 km/h (1 Bft) 93,62 %
02.10.2019 04:48 9,7 C 8,3 C 18,3 C 98 % 1004,2 hPa 0,0 l/m 0 min 0 min 0 W/m 19,3 km/h (3 Bft) 91,30 %
02.10.2019 04:50 9,7 C 8,3 C 18,3 C 98 % 1004,2 hPa 0,0 l/m 0 min 0 min 0 W/m 3,2 km/h (1 Bft) 94,34 %
02.10.2019 04:52 9,6 C 8,3 C 18,3 C 98 % 1004,3 hPa 0,0 l/m 0 min 0 min 0 W/m 6,4 km/h (2 Bft) 92,31 %
02.10.2019 04:54 9,6 C 8,3 C 18,3 C 98 % 1004,3 hPa 0,0 l/m 0 min 0 min 0 W/m 6,4 km/h (2 Bft) 91,84 %
02.10.2019 04:56 9,6 C 8,3 C 18,3 C 98 % 1004,3 hPa 0,0 l/m 0 min 0 min 0 W/m 3,2 km/h (1 Bft) 93,62 %
02.10.2019 04:58 9,6 C 8,3 C 18,3 C 98 % 1004,4 hPa 0,0 l/m 0 min 0 min 0 W/m 6,4 km/h (2 Bft) 95,74 %
02.10.2019 05:00 9,6 C 8,3 C 18,3 C 98 % 1004,4 hPa 0,0 l/m 0 min 0 min 0 W/m 6,4 km/h (2 Bft) 93,48 %
02.10.2019 05:02 9,5 C 8,3 C 18,3 C 98 % 1004,4 hPa 0,0 l/m 0 min 0 min 0 W/m 6,4 km/h (2 Bft) 93,62 %
02.10.2019 05:04 9,5 C 8,3 C 18,3 C 98 % 1004,5 hPa 0,0 l/m 0 min 0 min 0 W/m 6,4 km/h (2 Bft) 96,23 %
02.10.2019 05:06 9,4 C 8,3 C 18,3 C 98 % 1004,5 hPa 0,0 l/m 0 min 0 min 0 W/m 6,4 km/h (2 Bft) 94,74 %
02.10.2019 05:08 9,4 C 8,3 C 18,3 C 98 % 1004,5 hPa 0,0 l/m 0 min 0 min 0 W/m 12,9 km/h (3 Bft) 96,00 %
02.10.2019 05:10 9,4 C 8,3 C 18,3 C 98 % 1004,6 hPa 0,0 l/m 0 min 0 min 0 W/m 6,4 km/h (2 Bft) 95,65 %
02.10.2019 05:12 9,4 C 8,3 C 18,3 C 98 % 1004,7 hPa 0,0 l/m 0 min 0 min 0 W/m 6,4 km/h (2 Bft) 96,30 %
02.10.2019 05:14 9,4 C 8,3 C 18,3 C 98 % 1004,7 hPa 0,0 l/m 0 min 0 min 0 W/m 9,7 km/h (2 Bft) 95,65 %
02.10.2019 05:16 9,4 C 8,3 C 18,3 C 98 % 1004,8 hPa 0,0 l/m 0 min 0 min 0 W/m 16,1 km/h (3 Bft) 94,74 %
02.10.2019 05:18 9,4 C 8,3 C 18,3 C 98 % 1004,8 hPa 0,0 l/m 0 min 0 min 0 W/m 16,1 km/h (3 Bft) 96,00 %
02.10.2019 05:20 9,3 C 8,3 C 18,3 C 98 % 1004,8 hPa 0,0 l/m 0 min 0 min 0 W/m 6,4 km/h (2 Bft) 95,74 %
02.10.2019 05:22 9,3 C 8,3 C 18,3 C 98 % 1004,8 hPa 0,0 l/m 0 min 0 min 0 W/m 3,2 km/h (1 Bft) 92,45 %
02.10.2019 05:24 9,3 C 8,3 C 18,3 C 98 % 1004,8 hPa 0,0 l/m 0 min 0 min 0 W/m 9,7 km/h (2 Bft) 100,00 %
02.10.2019 05:26 9,3 C 8,3 C 18,3 C 98 % 1004,8 hPa 0,0 l/m 0 min 0 min 0 W/m 3,2 km/h (1 Bft) 93,88 %
02.10.2019 05:28 9,3 C 8,3 C 18,3 C 98 % 1004,8 hPa 0,0 l/m 0 min 0 min 0 W/m 12,9 km/h (3 Bft) 97,87 %
02.10.2019 05:30 9,3 C 8,3 C 18,3 C 98 % 1004,9 hPa 0,0 l/m 0 min 0 min 0 W/m 3,2 km/h (1 Bft) 98,11 %
02.10.2019 05:32 9,3 C 8,3 C 18,3 C 98 % 1004,9 hPa 0,0 l/m 0 min 0 min 0 W/m 9,7 km/h (2 Bft) 100,00 %
02.10.2019 05:34 9,3 C 8,3 C 18,3 C 98 % 1004,9 hPa 0,0 l/m 0 min 0 min 0 W/m 6,4 km/h (2 Bft) 97,87 %
02.10.2019 05:36 9,3 C 8,3 C 18,3 C 98 % 1004,9 hPa 0,0 l/m 0 min 0 min 0 W/m 6,4 km/h (2 Bft) 95,92 %
02.10.2019 05:38 9,3 C 8,3 C 18,3 C 98 % 1005,0 hPa 0,0 l/m 0 min 0 min 0 W/m 9,7 km/h (2 Bft) 97,87 %
02.10.2019 05:40 9,3 C 8,3 C 18,3 C 98 % 1005,0 hPa 0,0 l/m 0 min 0 min 0 W/m 9,7 km/h (2 Bft) 93,62 %
02.10.2019 05:42 9,2 C 8,3 C 18,3 C 98 % 1005,1 hPa 0,0 l/m 0 min 0 min 0 W/m 3,2 km/h (1 Bft) 97,87 %
02.10.2019 05:44 9,2 C 8,3 C 18,3 C 98 % 1005,0 hPa 0,0 l/m 0 min 0 min 0 W/m 6,4 km/h (2 Bft) 100,00 %
02.10.2019 05:46 9,2 C 8,3 C 18,3 C 98 % 1005,0 hPa 0,0 l/m 0 min 0 min 0 W/m 3,2 km/h (1 Bft) 100,00 %
02.10.2019 05:48 9,2 C 8,3 C 18,3 C 98 % 1005,1 hPa 0,0 l/m 0 min 0 min 0 W/m 9,7 km/h (2 Bft) 95,92 %
02.10.2019 05:50 9,2 C 8,3 C 18,3 C 98 % 1005,1 hPa 0,0 l/m 0 min 0 min 0 W/m 9,7 km/h (2 Bft) 100,00 %
02.10.2019 05:52 9,2 C 8,3 C 18,3 C 98 % 1005,2 hPa 0,0 l/m 0 min 0 min 0 W/m 12,9 km/h (3 Bft) 98,11 %
02.10.2019 05:54 9,1 C 8,3 C 18,3 C 98 % 1005,3 hPa 0,0 l/m 0 min 0 min 0 W/m 6,4 km/h (2 Bft) 100,00 %
02.10.2019 05:56 9,1 C 7,8 C 18,3 C 98 % 1005,4 hPa 0,0 l/m 0 min 0 min 0 W/m 6,4 km/h (2 Bft) 100,00 %
02.10.2019 05:58 9,1 C 7,8 C 18,3 C 98 % 1005,4 hPa 0,0 l/m 0 min 0 min 0 W/m 9,7 km/h (2 Bft) 97,83 %
02.10.2019 06:00 9,1 C 7,8 C 18,3 C 98 % 1005,4 hPa 0,0 l/m 0 min 0 min 0 W/m 6,4 km/h (2 Bft) 100,00 %
02.10.2019 06:02 9,1 C 7,8 C 18,3 C 98 % 1005,5 hPa 0,0 l/m 0 min 0 min 0 W/m 12,9 km/h (3 Bft) 100,00 %
02.10.2019 06:04 9,1 C 7,8 C 18,3 C 98 % 1005,5 hPa 0,0 l/m 0 min 0 min 0 W/m 3,2 km/h (1 Bft) 100,00 %
02.10.2019 06:08 9,0 C 7,8 C 18,3 C 98 % 1005,5 hPa 0,0 l/m 0 min 0 min 0 W/m 12,9 km/h (3 Bft) 98,92 %
02.10.2019 06:10 9,0 C 7,8 C 18,3 C 98 % 1005,5 hPa 0,0 l/m 0 min 2 min 0 W/m 3,2 km/h (1 Bft) 100,00 %
02.10.2019 06:12 9,0 C 7,8 C 18,3 C 98 % 1005,6 hPa 0,0 l/m 0 min 0 min 0 W/m 9,7 km/h (2 Bft) 100,00 %
02.10.2019 06:14 9,0 C 7,8 C 18,3 C 98 % 1005,6 hPa 0,0 l/m 0 min 0 min 0 W/m 16,1 km/h (3 Bft) 97,87 %
02.10.2019 06:16 9,0 C 7,8 C 18,3 C 98 % 1005,6 hPa 0,0 l/m 0 min 0 min 0 W/m 6,4 km/h (2 Bft) 100,00 %
02.10.2019 06:18 9,0 C 8,3 C 18,3 C 98 % 1005,6 hPa 0,0 l/m 0 min 0 min 0 W/m 3,2 km/h (1 Bft) 100,00 %
02.10.2019 06:20 9,0 C 8,3 C 18,3 C 98 % 1005,6 hPa 0,0 l/m 0 min 0 min 0 W/m 9,7 km/h (2 Bft) 100,00 %
02.10.2019 06:22 9,0 C 8,3 C 18,3 C 98 % 1005,7 hPa 0,0 l/m 0 min 0 min 0 W/m 3,2 km/h (1 Bft) 100,00 %
02.10.2019 06:24 9,0 C 8,3 C 18,3 C 98 % 1005,8 hPa 0,0 l/m 0 min 0 min 0 W/m 3,2 km/h (1 Bft) 97,87 %
02.10.2019 06:26 9,0 C 8,3 C 18,3 C 98 % 1005,8 hPa 0,0 l/m 0 min 0 min 0 W/m 3,2 km/h (1 Bft) 100,00 %
02.10.2019 06:28 9,0 C 8,3 C 18,3 C 98 % 1005,9 hPa 0,0 l/m 0 min 2 min 0 W/m 3,2 km/h (1 Bft) 100,00 %
02.10.2019 06:30 9,0 C 8,3 C 18,3 C 98 % 1005,9 hPa 0,0 l/m 0 min 0 min 0 W/m 3,2 km/h (1 Bft) 100,00 %
02.10.2019 06:32 9,0 C 8,3 C 18,3 C 98 % 1005,9 hPa 0,0 l/m 0 min 0 min 0 W/m 9,7 km/h (2 Bft) 97,83 %
02.10.2019 06:34 9,0 C 8,3 C 18,3 C 98 % 1005,9 hPa 0,0 l/m 0 min 0 min 0 W/m 3,2 km/h (1 Bft) 100,00 %
02.10.2019 06:36 9,1 C 8,3 C 18,3 C 98 % 1006,0 hPa 0,0 l/m 0 min 0 min 0 W/m 0,0 km/h (0 Bft) 100,00 %
02.10.2019 06:38 9,1 C 8,3 C 18,3 C 98 % 1006,0 hPa 0,0 l/m 0 min 0 min 0 W/m 6,4 km/h (2 Bft) 100,00 %
02.10.2019 06:40 9,1 C 8,3 C 18,3 C 98 % 1006,0 hPa 0,0 l/m 0 min 0 min 0 W/m 3,2 km/h (1 Bft) 97,87 %
02.10.2019 06:42 9,1 C 8,3 C 18,3 C 98 % 1006,0 hPa 0,0 l/m 0 min 0 min 0 W/m 3,2 km/h (1 Bft) 97,87 %
02.10.2019 06:44 9,1 C 8,3 C 18,3 C 99 % 1006,0 hPa 0,0 l/m 0 min 0 min 0 W/m 6,4 km/h (2 Bft) 97,87 %
02.10.2019 06:46 9,1 C 8,3 C 18,3 C 99 % 1006,0 hPa 0,0 l/m 0 min 0 min 0 W/m 0,0 km/h (0 Bft) 97,87 %
02.10.2019 06:48 9,1 C 8,3 C 18,3 C 99 % 1006,0 hPa 0,0 l/m 0 min 0 min 0 W/m 6,4 km/h (2 Bft) 97,83 %
02.10.2019 06:50 9,1 C 8,3 C 18,3 C 98 % 1006,1 hPa 0,0 l/m 0 min 0 min 0 W/m 0,0 km/h (0 Bft) 100,00 %
02.10.2019 06:52 9,1 C 8,3 C 18,3 C 98 % 1006,1 hPa 0,0 l/m 0 min 0 min 0 W/m 0,0 km/h (0 Bft) 100,00 %
02.10.2019 06:54 9,1 C 8,3 C 18,3 C 98 % 1006,1 hPa 0,0 l/m 0 min 0 min 0 W/m 0,0 km/h (0 Bft) 97,87 %
02.10.2019 06:56 9,1 C 8,3 C 18,3 C 98 % 1006,2 hPa 0,0 l/m 0 min 0 min 0 W/m 6,4 km/h (2 Bft) 97,87 %
02.10.2019 06:58 9,1 C 8,3 C 18,3 C 98 % 1006,2 hPa 0,0 l/m 0 min 0 min 0 W/m 0,0 km/h (0 Bft) 97,83 %
02.10.2019 07:00 9,1 C 8,3 C 18,3 C 98 % 1006,2 hPa 0,0 l/m 0 min 0 min 0 W/m 0,0 km/h (0 Bft) 95,74 %
02.10.2019 07:02 9,1 C 8,3 C 18,3 C 98 % 1006,3 hPa 0,0 l/m 0 min 0 min 0 W/m 3,2 km/h (1 Bft) 97,87 %
02.10.2019 07:04 9,1 C 8,3 C 18,3 C 98 % 1006,4 hPa 0,0 l/m 0 min 0 min 0 W/m 6,4 km/h (2 Bft) 97,87 %
02.10.2019 07:06 9,1 C 8,3 C 18,3 C 99 % 1006,4 hPa 0,0 l/m 0 min 0 min 0 W/m 3,2 km/h (1 Bft) 97,87 %
02.10.2019 07:08 9,1 C 8,3 C 18,3 C 99 % 1006,5 hPa 0,0 l/m 0 min 0 min 0 W/m 0,0 km/h (0 Bft) 97,37 %
02.10.2019 07:10 9,1 C 8,3 C 18,3 C 99 % 1006,6 hPa 0,0 l/m 0 min 0 min 0 W/m 6,4 km/h (2 Bft) 80,85 %
02.10.2019 07:12 9,2 C 8,3 C 18,3 C 99 % 1006,6 hPa 0,0 l/m 0 min 0 min 0 W/m 3,2 km/h (1 Bft) 70,45 %
02.10.2019 07:14 9,1 C 8,3 C 18,3 C 99 % 1006,6 hPa 0,0 l/m 0 min 0 min 0 W/m 9,7 km/h (2 Bft) 97,83 %
02.10.2019 07:16 9,2 C 8,3 C 18,3 C 99 % 1006,6 hPa 0,0 l/m 0 min 0 min 0 W/m 6,4 km/h (2 Bft) 95,74 %
02.10.2019 07:18 9,2 C 8,3 C 18,3 C 99 % 1006,6 hPa 0,0 l/m 0 min 0 min 0 W/m 3,2 km/h (1 Bft) 97,87 %
02.10.2019 07:20 9,2 C 8,3 C 18,3 C 99 % 1006,7 hPa 0,0 l/m 0 min 0 min 0 W/m 9,7 km/h (2 Bft) 97,87 %
02.10.2019 07:22 9,2 C 8,3 C 18,3 C 99 % 1006,7 hPa 0,0 l/m 0 min 0 min 0 W/m 6,4 km/h (2 Bft) 93,62 %
02.10.2019 07:24 9,2 C 8,3 C 18,3 C 99 % 1006,8 hPa 0,0 l/m 0 min 0 min 0 W/m 6,4 km/h (2 Bft) 95,65 %
02.10.2019 07:26 9,2 C 8,3 C 18,3 C 99 % 1006,8 hPa 0,0 l/m 0 min 0 min 0 W/m 3,2 km/h (1 Bft) 95,74 %
02.10.2019 07:28 9,2 C 8,3 C 18,3 C 99 % 1006,9 hPa 0,0 l/m 0 min 0 min 0 W/m 3,2 km/h (1 Bft) 95,74 %
02.10.2019 07:30 9,2 C 8,3 C 18,3 C 99 % 1007,0 hPa 0,0 l/m 0 min 0 min 0 W/m 3,2 km/h (1 Bft) 95,74 %
02.10.2019 07:32 9,2 C 8,3 C 18,3 C 99 % 1007,0 hPa 0,0 l/m 0 min 0 min 0 W/m 3,2 km/h (1 Bft) 95,74 %
02.10.2019 07:34 9,2 C 8,3 C 18,3 C 99 % 1007,1 hPa 0,0 l/m 0 min 0 min 0 W/m 0,0 km/h (0 Bft) 95,74 %
02.10.2019 07:36 9,2 C 8,3 C 18,3 C 99 % 1007,1 hPa 0,0 l/m 0 min 0 min 0 W/m 3,2 km/h (1 Bft) 95,65 %
02.10.2019 07:38 9,2 C 8,3 C 18,3 C 99 % 1007,1 hPa 0,0 l/m 0 min 0 min 0 W/m 3,2 km/h (1 Bft) 95,74 %
02.10.2019 07:40 9,2 C 8,3 C 18,3 C 99 % 1007,2 hPa 0,0 l/m 0 min 0 min 0 W/m 9,7 km/h (2 Bft) 89,36 %
02.10.2019 07:42 9,2 C 8,3 C 18,3 C 99 % 1007,2 hPa 0,0 l/m 0 min 0 min 0 W/m 3,2 km/h (1 Bft) 95,74 %
02.10.2019 07:44 9,2 C 8,3 C 18,3 C 99 % 1007,2 hPa 0,0 l/m 0 min 0 min 5 W/m 9,7 km/h (2 Bft) 97,87 %
02.10.2019 07:46 9,2 C 8,3 C 18,3 C 99 % 1007,3 hPa 0,0 l/m 0 min 0 min 5 W/m 3,2 km/h (1 Bft) 97,87 %
02.10.2019 07:48 9,2 C 8,3 C 18,3 C 99 % 1007,3 hPa 0,0 l/m 0 min 0 min 5 W/m 3,2 km/h (1 Bft) 97,83 %
02.10.2019 07:50 9,2 C 8,3 C 18,3 C 99 % 1007,3 hPa 0,0 l/m 0 min 0 min 7 W/m 6,4 km/h (2 Bft) 95,74 %
02.10.2019 07:52 9,2 C 8,3 C 18,3 C 99 % 1007,4 hPa 0,0 l/m 0 min 0 min 7 W/m 3,2 km/h (1 Bft) 97,87 %
02.10.2019 07:54 9,2 C 8,3 C 18,3 C 99 % 1007,4 hPa 0,0 l/m 0 min 0 min 10 W/m 3,2 km/h (1 Bft) 95,74 %
02.10.2019 07:56 9,2 C 8,3 C 18,3 C 99 % 1007,5 hPa 0,0 l/m 0 min 0 min 11 W/m 3,2 km/h (1 Bft) 95,74 %
02.10.2019 07:58 9,2 C 8,3 C 18,3 C 99 % 1007,5 hPa 0,0 l/m 0 min 0 min 12 W/m 3,2 km/h (1 Bft) 95,74 %
02.10.2019 08:00 9,2 C 8,3 C 18,3 C 99 % 1007,6 hPa 0,0 l/m 0 min 0 min 12 W/m 0,0 km/h (0 Bft) 97,83 %
02.10.2019 08:02 9,2 C 8,3 C 18,3 C 99 % 1007,6 hPa 0,0 l/m 0 min 0 min 14 W/m 9,7 km/h (2 Bft) 97,87 %
02.10.2019 08:04 9,2 C 8,3 C 18,3 C 99 % 1007,6 hPa 0,0 l/m 0 min 0 min 15 W/m 0,0 km/h (0 Bft) 97,87 %
02.10.2019 08:06 9,2 C 8,3 C 18,3 C 99 % 1007,6 hPa 0,0 l/m 0 min 0 min 18 W/m 0,0 km/h (0 Bft) 97,87 %
02.10.2019 08:08 9,2 C 8,3 C 18,3 C 99 % 1007,8 hPa 0,0 l/m 0 min 0 min 19 W/m 0,0 km/h (0 Bft) 97,87 %
02.10.2019 08:10 9,2 C 8,3 C 18,3 C 99 % 1007,7 hPa 0,0 l/m 0 min 0 min 20 W/m 0,0 km/h (0 Bft) 100,00 %
02.10.2019 08:12 9,2 C 8,3 C 18,3 C 99 % 1007,8 hPa 0,0 l/m 0 min 0 min 22 W/m 0,0 km/h (0 Bft) 100,00 %
02.10.2019 08:14 9,2 C 8,3 C 18,3 C 99 % 1007,9 hPa 0,0 l/m 0 min 0 min 26 W/m 0,0 km/h (0 Bft) 100,00 %
02.10.2019 08:16 9,2 C 8,9 C 18,3 C 99 % 1008,0 hPa 0,0 l/m 0 min 0 min 28 W/m 0,0 km/h (0 Bft) 95,74 %
02.10.2019 08:18 9,3 C 8,9 C 18,3 C 99 % 1008,0 hPa 0,0 l/m 0 min 0 min 31 W/m 0,0 km/h (0 Bft) 97,87 %
02.10.2019 08:20 9,3 C 8,9 C 18,3 C 99 % 1008,0 hPa 0,0 l/m 0 min 0 min 33 W/m 0,0 km/h (0 Bft) 97,87 %
02.10.2019 08:22 9,3 C 8,9 C 18,3 C 99 % 1008,1 hPa 0,0 l/m 0 min 0 min 33 W/m 0,0 km/h (0 Bft) 97,83 %
02.10.2019 08:24 9,3 C 8,9 C 18,3 C 99 % 1008,1 hPa 0,0 l/m 0 min 0 min 33 W/m 0,0 km/h (0 Bft) 95,74 %
02.10.2019 08:26 9,3 C 8,9 C 18,3 C 99 % 1008,2 hPa 0,0 l/m 0 min 0 min 36 W/m 0,0 km/h (0 Bft) 97,87 %
02.10.2019 08:28 9,3 C 8,9 C 18,3 C 99 % 1008,2 hPa 0,0 l/m 0 min 0 min 39 W/m 0,0 km/h (0 Bft) 97,87 %
02.10.2019 08:30 9,3 C 8,9 C 18,3 C 99 % 1008,2 hPa 0,0 l/m 0 min 0 min 40 W/m 0,0 km/h (0 Bft) 97,87 %
02.10.2019 08:32 9,4 C 8,9 C 18,3 C 99 % 1008,3 hPa 0,0 l/m 0 min 0 min 43 W/m 0,0 km/h (0 Bft) 97,87 %
02.10.2019 08:34 9,4 C 8,9 C 18,3 C 99 % 1008,3 hPa 0,0 l/m 0 min 0 min 46 W/m 6,4 km/h (2 Bft) 97,87 %
02.10.2019 08:36 9,4 C 8,9 C 18,3 C 99 % 1008,3 hPa 0,0 l/m 0 min 0 min 46 W/m 0,0 km/h (0 Bft) 97,83 %
02.10.2019 08:38 9,4 C 8,9 C 18,3 C 99 % 1008,4 hPa 0,0 l/m 0 min 0 min 48 W/m 3,2 km/h (1 Bft) 97,87 %
02.10.2019 08:40 9,4 C 8,9 C 18,3 C 99 % 1008,4 hPa 0,0 l/m 0 min 0 min 52 W/m 0,0 km/h (0 Bft) 97,87 %
02.10.2019 08:42 9,4 C 8,9 C 18,3 C 99 % 1008,4 hPa 0,0 l/m 0 min 0 min 54 W/m 9,7 km/h (2 Bft) 97,87 %
02.10.2019 08:44 9,4 C 9,4 C 18,3 C 99 % 1008,4 hPa 0,0 l/m 0 min 0 min 54 W/m 3,2 km/h (1 Bft) 97,87 %
02.10.2019 08:46 9,4 C 9,4 C 18,3 C 99 % 1008,5 hPa 0,0 l/m 0 min 0 min 51 W/m 3,2 km/h (1 Bft) 97,87 %
02.10.2019 08:48 9,5 C 8,9 C 18,3 C 99 % 1008,5 hPa 0,0 l/m 0 min 0 min 43 W/m 3,2 km/h (1 Bft) 95,65 %
02.10.2019 08:50 9,5 C 8,9 C 18,3 C 99 % 1008,5 hPa 0,0 l/m 0 min 0 min 39 W/m 6,4 km/h (2 Bft) 97,87 %
02.10.2019 08:52 9,5 C 8,9 C 18,3 C 99 % 1008,6 hPa 0,0 l/m 0 min 0 min 37 W/m 3,2 km/h (1 Bft) 95,74 %
02.10.2019 08:54 9,5 C 8,9 C 18,3 C 99 % 1008,6 hPa 0,0 l/m 0 min 0 min 35 W/m 0,0 km/h (0 Bft) 97,87 %
02.10.2019 08:56 9,5 C 8,9 C 18,3 C 99 % 1008,6 hPa 0,0 l/m 0 min 0 min 36 W/m 0,0 km/h (0 Bft) 97,87 %
02.10.2019 08:58 9,5 C 8,9 C 18,3 C 99 % 1008,7 hPa 0,0 l/m 0 min 0 min 35 W/m 0,0 km/h (0 Bft) 93,48 %
02.10.2019 09:00 9,5 C 8,9 C 18,3 C 99 % 1008,7 hPa 0,0 l/m 0 min 0 min 33 W/m 0,0 km/h (0 Bft) 97,87 %
02.10.2019 09:02 9,5 C 8,9 C 18,3 C 99 % 1008,7 hPa 0,0 l/m 0 min 0 min 34 W/m 6,4 km/h (2 Bft) 97,87 %
02.10.2019 09:04 9,5 C 8,9 C 18,3 C 99 % 1008,8 hPa 0,0 l/m 0 min 0 min 36 W/m 0,0 km/h (0 Bft) 97,87 %
02.10.2019 09:06 9,4 C 8,9 C 18,3 C 99 % 1008,8 hPa 0,0 l/m 0 min 0 min 39 W/m 9,7 km/h (2 Bft) 97,87 %
02.10.2019 09:08 9,4 C 8,9 C 18,3 C 99 % 1008,9 hPa 0,0 l/m 0 min 0 min 39 W/m 6,4 km/h (2 Bft) 97,96 %
02.10.2019 09:10 9,4 C 8,9 C 18,3 C 99 % 1008,9 hPa 0,0 l/m 0 min 0 min 39 W/m 9,7 km/h (2 Bft) 97,87 %
02.10.2019 09:12 9,4 C 8,9 C 18,3 C 99 % 1009,0 hPa 0,0 l/m 0 min 0 min 40 W/m 3,2 km/h (1 Bft) 97,87 %
02.10.2019 09:14 9,4 C 8,9 C 18,3 C 99 % 1009,0 hPa 0,0 l/m 0 min 0 min 41 W/m 3,2 km/h (1 Bft) 97,87 %
02.10.2019 09:16 9,4 C 8,9 C 18,3 C 99 % 1009,1 hPa 0,0 l/m 0 min 0 min 41 W/m 9,7 km/h (2 Bft) 97,83 %
02.10.2019 09:18 9,4 C 8,9 C 18,3 C 99 % 1009,1 hPa 0,0 l/m 0 min 0 min 42 W/m 6,4 km/h (2 Bft) 100,00 %
02.10.2019 09:20 9,4 C 8,9 C 18,3 C 99 % 1009,1 hPa 0,0 l/m 0 min 0 min 44 W/m 3,2 km/h (1 Bft) 97,87 %
02.10.2019 09:22 9,4 C 8,9 C 18,3 C 99 % 1009,1 hPa 0,0 l/m 0 min 0 min 46 W/m 3,2 km/h (1 Bft) 97,87 %
02.10.2019 09:24 9,4 C 8,9 C 18,3 C 99 % 1009,1 hPa 0,0 l/m 0 min 0 min 47 W/m 3,2 km/h (1 Bft) 100,00 %
02.10.2019 09:26 9,4 C 8,9 C 18,3 C 99 % 1009,2 hPa 0,0 l/m 0 min 0 min 49 W/m 9,7 km/h (2 Bft) 95,65 %
02.10.2019 09:28 9,4 C 8,9 C 18,3 C 99 % 1009,2 hPa 0,0 l/m 0 min 0 min 50 W/m 6,4 km/h (2 Bft) 97,87 %
02.10.2019 09:30 9,4 C 8,9 C 18,3 C 99 % 1009,2 hPa 0,0 l/m 0 min 0 min 52 W/m 3,2 km/h (1 Bft) 100,00 %
02.10.2019 09:32 9,4 C 9,4 C 18,3 C 99 % 1009,3 hPa 0,0 l/m 0 min 0 min 53 W/m 3,2 km/h (1 Bft) 97,87 %
02.10.2019 09:34 9,4 C 9,4 C 18,3 C 99 % 1009,3 hPa 0,0 l/m 0 min 0 min 57 W/m 12,9 km/h (3 Bft) 97,87 %
02.10.2019 09:36 9,5 C 9,4 C 18,3 C 99 % 1009,3 hPa 0,0 l/m 0 min 0 min 62 W/m 9,7 km/h (2 Bft) 95,74 %
02.10.2019 09:38 9,5 C 9,4 C 18,3 C 99 % 1009,3 hPa 0,0 l/m 0 min 0 min 67 W/m 6,4 km/h (2 Bft) 97,83 %
02.10.2019 09:40 9,5 C 9,4 C 18,3 C 99 % 1009,4 hPa 0,0 l/m 0 min 0 min 92 W/m 6,4 km/h (2 Bft) 97,87 %
02.10.2019 09:42 9,5 C 9,4 C 18,3 C 99 % 1009,5 hPa 0,0 l/m 2 min 0 min 233 W/m 3,2 km/h (1 Bft) 97,87 %
02.10.2019 09:44 9,6 C 10,6 C 18,3 C 99 % 1009,5 hPa 0,0 l/m 2 min 0 min 310 W/m 6,4 km/h (2 Bft) 95,74 %
02.10.2019 09:46 9,6 C 12,2 C 18,3 C 99 % 1009,6 hPa 0,0 l/m 2 min 0 min 332 W/m 6,4 km/h (2 Bft) 97,87 %
02.10.2019 09:48 9,6 C 13,9 C 18,3 C 99 % 1009,6 hPa 0,0 l/m 2 min 0 min 363 W/m 12,9 km/h (3 Bft) 97,87 %
02.10.2019 09:50 9,7 C 14,4 C 18,3 C 99 % 1009,7 hPa 0,0 l/m 2 min 0 min 389 W/m 6,4 km/h (2 Bft) 97,83 %
02.10.2019 09:52 9,8 C 15,6 C 18,3 C 99 % 1009,7 hPa 0,0 l/m 2 min 0 min 408 W/m 3,2 km/h (1 Bft) 97,87 %
02.10.2019 09:54 9,9 C 16,1 C 18,3 C 99 % 1009,8 hPa 0,0 l/m 2 min 0 min 409 W/m 3,2 km/h (1 Bft) 97,87 %
02.10.2019 09:56 10,1 C 15,0 C 18,3 C 99 % 1009,8 hPa 0,0 l/m 2 min 0 min 438 W/m 9,7 km/h (2 Bft) 95,74 %
02.10.2019 09:58 10,2 C 13,9 C 18,3 C 99 % 1009,8 hPa 0,0 l/m 2 min 0 min 234 W/m 12,9 km/h (3 Bft) 93,62 %
02.10.2019 10:00 10,3 C 13,3 C 18,3 C 99 % 1009,9 hPa 0,0 l/m 2 min 0 min 211 W/m 6,4 km/h (2 Bft) 95,74 %
02.10.2019 10:02 10,3 C 12,8 C 18,3 C 99 % 1009,9 hPa 0,0 l/m 2 min 0 min 228 W/m 12,9 km/h (3 Bft) 95,65 %
02.10.2019 10:04 10,3 C 11,7 C 18,3 C 99 % 1009,9 hPa 0,0 l/m 0 min 0 min 140 W/m 6,4 km/h (2 Bft) 93,62 %
02.10.2019 10:06 10,4 C 11,7 C 18,3 C 99 % 1010,0 hPa 0,0 l/m 0 min 0 min 140 W/m 6,4 km/h (2 Bft) 95,74 %
02.10.2019 10:08 10,4 C 11,1 C 18,3 C 99 % 1010,0 hPa 0,0 l/m 0 min 0 min 128 W/m 6,4 km/h (2 Bft) 93,62 %
02.10.2019 10:10 10,4 C 12,2 C 18,3 C 99 % 1010,0 hPa 0,0 l/m 0 min 0 min 123 W/m 9,7 km/h (2 Bft) 95,74 %
02.10.2019 10:12 10,4 C 13,9 C 18,3 C 99 % 1010,1 hPa 0,0 l/m 2 min 0 min 331 W/m 9,7 km/h (2 Bft) 95,74 %
02.10.2019 10:14 10,5 C 15,0 C 18,3 C 99 % 1010,0 hPa 0,0 l/m 2 min 0 min 415 W/m 6,4 km/h (2 Bft) 91,30 %
02.10.2019 10:16 10,6 C 15,6 C 18,3 C 99 % 1010,1 hPa 0,0 l/m 2 min 0 min 438 W/m 6,4 km/h (2 Bft) 95,74 %
02.10.2019 10:18 10,7 C 15,6 C 18,3 C 99 % 1010,1 hPa 0,0 l/m 2 min 0 min 452 W/m 6,4 km/h (2 Bft) 95,74 %
02.10.2019 10:20 10,8 C 15,6 C 18,3 C 99 % 1010,2 hPa 0,0 l/m 2 min 0 min 395 W/m 6,4 km/h (2 Bft) 95,74 %
02.10.2019 10:22 10,9 C 16,1 C 18,3 C 99 % 1010,1 hPa 0,0 l/m 2 min 0 min 425 W/m 6,4 km/h (2 Bft) 95,74 %
02.10.2019 10:24 11,1 C 15,6 C 18,3 C 99 % 1010,2 hPa 0,0 l/m 2 min 0 min 417 W/m 16,1 km/h (3 Bft) 97,83 %
02.10.2019 10:26 11,1 C 15,6 C 18,3 C 99 % 1010,2 hPa 0,0 l/m 2 min 0 min 479 W/m 12,9 km/h (3 Bft) 95,74 %
02.10.2019 10:28 11,2 C 15,6 C 18,3 C 99 % 1010,3 hPa 0,0 l/m 2 min 0 min 489 W/m 16,1 km/h (3 Bft) 95,74 %
02.10.2019 10:30 11,2 C 15,6 C 18,3 C 99 % 1010,4 hPa 0,0 l/m 2 min 0 min 363 W/m 9,7 km/h (2 Bft) 97,87 %
02.10.2019 10:32 11,3 C 14,4 C 18,3 C 99 % 1010,4 hPa 0,0 l/m 2 min 0 min 284 W/m 9,7 km/h (2 Bft) 95,74 %
02.10.2019 10:34 11,4 C 14,4 C 18,3 C 99 % 1010,4 hPa 0,0 l/m 2 min 0 min 261 W/m 9,7 km/h (2 Bft) 97,87 %
02.10.2019 10:36 11,4 C 14,4 C 18,3 C 98 % 1010,4 hPa 0,0 l/m 2 min 0 min 340 W/m 9,7 km/h (2 Bft) 97,87 %
02.10.2019 10:38 11,4 C 13,9 C 18,3 C 98 % 1010,4 hPa 0,0 l/m 2 min 0 min 274 W/m 9,7 km/h (2 Bft) 95,65 %
02.10.2019 10:40 11,4 C 15,6 C 18,3 C 98 % 1010,4 hPa 0,0 l/m 2 min 0 min 272 W/m 9,7 km/h (2 Bft) 95,74 %
02.10.2019 10:42 11,5 C 16,7 C 18,3 C 97 % 1010,4 hPa 0,0 l/m 2 min 0 min 529 W/m 9,7 km/h (2 Bft) 97,87 %
02.10.2019 10:44 11,6 C 16,1 C 18,3 C 97 % 1010,5 hPa 0,0 l/m 2 min 0 min 460 W/m 6,4 km/h (2 Bft) 97,87 %
02.10.2019 10:46 11,6 C 15,6 C 18,3 C 97 % 1010,5 hPa 0,0 l/m 0 min 0 min 199 W/m 6,4 km/h (2 Bft) 97,87 %
02.10.2019 10:48 11,7 C 15,0 C 18,3 C 96 % 1010,5 hPa 0,0 l/m 0 min 0 min 174 W/m 3,2 km/h (1 Bft) 97,83 %
02.10.2019 10:50 11,7 C 15,6 C 18,3 C 96 % 1010,5 hPa 0,0 l/m 0 min 0 min 182 W/m 6,4 km/h (2 Bft) 95,74 %
02.10.2019 10:52 11,7 C 16,1 C 18,3 C 95 % 1010,6 hPa 0,0 l/m 2 min 0 min 317 W/m 16,1 km/h (3 Bft) 95,74 %
02.10.2019 10:54 11,8 C 17,8 C 18,3 C 95 % 1010,6 hPa 0,0 l/m 2 min 0 min 472 W/m 12,9 km/h (3 Bft) 97,87 %
02.10.2019 10:56 11,8 C 18,3 C 18,3 C 94 % 1010,5 hPa 0,0 l/m 2 min 0 min 495 W/m 9,7 km/h (2 Bft) 97,87 %
02.10.2019 10:58 11,9 C 18,3 C 18,3 C 94 % 1010,6 hPa 0,0 l/m 2 min 0 min 497 W/m 16,1 km/h (3 Bft) 97,87 %
02.10.2019 11:00 11,9 C 18,9 C 18,3 C 93 % 1010,5 hPa 0,0 l/m 2 min 0 min 500 W/m 6,4 km/h (2 Bft) 97,83 %
02.10.2019 11:02 12,1 C 19,4 C 18,3 C 93 % 1010,6 hPa 0,0 l/m 2 min 0 min 502 W/m 6,4 km/h (2 Bft) 97,87 %
02.10.2019 11:04 12,1 C 19,4 C 18,3 C 93 % 1010,6 hPa 0,0 l/m 2 min 0 min 504 W/m 12,9 km/h (3 Bft) 100,00 %
02.10.2019 11:06 12,2 C 20,0 C 18,3 C 92 % 1010,7 hPa 0,0 l/m 2 min 0 min 508 W/m 6,4 km/h (2 Bft) 95,74 %
02.10.2019 11:08 12,3 C 20,6 C 18,3 C 92 % 1010,7 hPa 0,0 l/m 2 min 0 min 514 W/m 3,2 km/h (1 Bft) 97,87 %
02.10.2019 11:10 12,4 C 20,0 C 18,3 C 91 % 1010,7 hPa 0,0 l/m 2 min 0 min 516 W/m 12,9 km/h (3 Bft) 97,87 %
02.10.2019 11:12 12,5 C 20,0 C 18,3 C 91 % 1010,8 hPa 0,0 l/m 2 min 0 min 522 W/m 9,7 km/h (2 Bft) 97,83 %
02.10.2019 11:14 12,6 C 20,0 C 18,3 C 90 % 1010,8 hPa 0,0 l/m 2 min 0 min 523 W/m 16,1 km/h (3 Bft) 97,87 %
02.10.2019 11:16 12,7 C 20,0 C 18,3 C 89 % 1010,8 hPa 0,0 l/m 2 min 0 min 534 W/m 12,9 km/h (3 Bft) 97,87 %
02.10.2019 11:18 12,7 C 17,8 C 18,3 C 88 % 1010,9 hPa 0,0 l/m 2 min 0 min 546 W/m 12,9 km/h (3 Bft) 97,87 %
02.10.2019 11:20 12,8 C 18,3 C 18,3 C 87 % 1010,9 hPa 0,0 l/m 2 min 0 min 543 W/m 12,9 km/h (3 Bft) 95,74 %
02.10.2019 11:22 12,8 C 18,9 C 18,3 C 86 % 1010,9 hPa 0,0 l/m 2 min 0 min 545 W/m 9,7 km/h (2 Bft) 97,87 %
02.10.2019 11:24 12,9 C 19,4 C 18,3 C 86 % 1011,0 hPa 0,0 l/m 2 min 0 min 559 W/m 16,1 km/h (3 Bft) 97,83 %
02.10.2019 11:26 12,9 C 20,0 C 18,3 C 85 % 1010,9 hPa 0,0 l/m 2 min 0 min 585 W/m 12,9 km/h (3 Bft) 97,87 %
02.10.2019 11:28 13,0 C 18,9 C 18,3 C 85 % 1011,0 hPa 0,0 l/m 2 min 0 min 586 W/m 9,7 km/h (2 Bft) 97,87 %
02.10.2019 11:30 13,1 C 18,3 C 18,3 C 84 % 1011,0 hPa 0,0 l/m 2 min 0 min 579 W/m 12,9 km/h (3 Bft) 97,87 %
02.10.2019 11:32 13,1 C 18,9 C 18,3 C 84 % 1011,1 hPa 0,0 l/m 2 min 0 min 564 W/m 12,9 km/h (3 Bft) 95,74 %
02.10.2019 11:34 13,2 C 19,4 C 18,3 C 83 % 1011,1 hPa 0,0 l/m 2 min 0 min 605 W/m 12,9 km/h (3 Bft) 93,62 %
02.10.2019 11:36 13,2 C 18,9 C 18,3 C 83 % 1011,2 hPa 0,0 l/m 2 min 0 min 611 W/m 16,1 km/h (3 Bft) 97,83 %
02.10.2019 11:38 13,2 C 17,8 C 18,3 C 82 % 1011,2 hPa 0,0 l/m 2 min 0 min 312 W/m 12,9 km/h (3 Bft) 97,87 %
02.10.2019 11:40 13,2 C 18,9 C 18,3 C 82 % 1011,2 hPa 0,0 l/m 2 min 0 min 501 W/m 9,7 km/h (2 Bft) 97,87 %
02.10.2019 11:42 13,3 C 18,9 C 18,3 C 83 % 1011,2 hPa 0,0 l/m 2 min 0 min 616 W/m 12,9 km/h (3 Bft) 100,00 %
02.10.2019 11:44 13,3 C 19,4 C 18,3 C 82 % 1011,3 hPa 0,0 l/m 2 min 0 min 629 W/m 9,7 km/h (2 Bft) 100,00 %
02.10.2019 11:46 13,4 C 20,6 C 18,3 C 81 % 1011,3 hPa 0,0 l/m 2 min 0 min 675 W/m 12,9 km/h (3 Bft) 100,00 %
02.10.2019 11:48 13,4 C 19,4 C 18,3 C 81 % 1011,3 hPa 0,0 l/m 2 min 0 min 623 W/m 12,9 km/h (3 Bft) 97,87 %
02.10.2019 11:50 13,5 C 19,4 C 18,3 C 80 % 1011,3 hPa 0,0 l/m 2 min 0 min 360 W/m 12,9 km/h (3 Bft) 100,00 %
02.10.2019 11:52 13,6 C 20,6 C 18,3 C 81 % 1011,3 hPa 0,0 l/m 2 min 0 min 636 W/m 6,4 km/h (2 Bft) 100,00 %
02.10.2019 11:54 13,7 C 21,1 C 18,3 C 81 % 1011,4 hPa 0,0 l/m 2 min 0 min 654 W/m 9,7 km/h (2 Bft) 100,00 %
02.10.2019 11:56 13,7 C 21,1 C 18,3 C 80 % 1011,4 hPa 0,0 l/m 2 min 0 min 659 W/m 12,9 km/h (3 Bft) 100,00 %
02.10.2019 11:58 13,8 C 21,1 C 18,3 C 80 % 1011,4 hPa 0,0 l/m 2 min 0 min 647 W/m 16,1 km/h (3 Bft) 95,65 %
02.10.2019 12:00 13,9 C 20,6 C 18,3 C 78 % 1011,4 hPa 0,0 l/m 2 min 0 min 659 W/m 19,3 km/h (3 Bft) 97,87 %
02.10.2019 12:02 13,9 C 19,4 C 18,3 C 78 % 1011,4 hPa 0,0 l/m 2 min 0 min 572 W/m 16,1 km/h (3 Bft) 97,87 %
02.10.2019 12:04 14,0 C 17,8 C 18,3 C 77 % 1011,5 hPa 0,0 l/m 2 min 0 min 268 W/m 12,9 km/h (3 Bft) 97,87 %
02.10.2019 12:08 13,9 C 18,9 C 18,3 C 76 % 1011,6 hPa 0,0 l/m 4 min 0 min 316 W/m 19,3 km/h (3 Bft) 97,87 %
02.10.2019 12:10 14,0 C 18,9 C 18,3 C 76 % 1011,6 hPa 0,0 l/m 2 min 0 min 703 W/m 9,7 km/h (2 Bft) 97,83 %
02.10.2019 12:12 14,0 C 18,9 C 18,3 C 75 % 1011,6 hPa 0,0 l/m 2 min 0 min 691 W/m 16,1 km/h (3 Bft) 97,87 %
02.10.2019 12:14 14,0 C 19,4 C 18,3 C 74 % 1011,6 hPa 0,0 l/m 2 min 0 min 658 W/m 19,3 km/h (3 Bft) 97,87 %
02.10.2019 12:16 14,1 C 20,0 C 18,3 C 73 % 1011,6 hPa 0,0 l/m 2 min 0 min 685 W/m 6,4 km/h (2 Bft) 95,74 %
02.10.2019 12:18 14,2 C 21,1 C 18,3 C 74 % 1011,7 hPa 0,0 l/m 2 min 0 min 634 W/m 12,9 km/h (3 Bft) 97,87 %
02.10.2019 12:20 14,2 C 18,3 C 18,3 C 74 % 1011,8 hPa 0,0 l/m 2 min 0 min 484 W/m 16,1 km/h (3 Bft) 97,87 %
02.10.2019 12:22 14,2 C 16,1 C 18,3 C 72 % 1011,8 hPa 0,0 l/m 0 min 0 min 169 W/m 19,3 km/h (3 Bft) 97,83 %
02.10.2019 12:24 14,1 C 15,0 C 18,3 C 72 % 1011,8 hPa 0,0 l/m 0 min 0 min 205 W/m 6,4 km/h (2 Bft) 97,87 %
02.10.2019 12:26 14,1 C 15,6 C 18,3 C 74 % 1011,8 hPa 0,0 l/m 0 min 0 min 213 W/m 12,9 km/h (3 Bft) 97,87 %
02.10.2019 12:28 14,1 C 16,7 C 18,3 C 74 % 1011,8 hPa 0,0 l/m 2 min 0 min 355 W/m 12,9 km/h (3 Bft) 95,74 %
02.10.2019 12:30 14,1 C 16,1 C 18,3 C 75 % 1011,8 hPa 0,0 l/m 2 min 0 min 356 W/m 6,4 km/h (2 Bft) 97,87 %
02.10.2019 12:32 14,1 C 18,9 C 18,3 C 74 % 1011,7 hPa 0,0 l/m 2 min 0 min 335 W/m 12,9 km/h (3 Bft) 100,00 %
02.10.2019 12:34 14,0 C 17,8 C 18,3 C 74 % 1011,7 hPa 0,0 l/m 2 min 0 min 700 W/m 19,3 km/h (3 Bft) 100,00 %
02.10.2019 12:36 14,0 C 15,6 C 18,3 C 74 % 1011,7 hPa 0,0 l/m 2 min 0 min 609 W/m 12,9 km/h (3 Bft) 97,87 %
02.10.2019 12:38 13,9 C 14,4 C 18,3 C 73 % 1011,7 hPa 0,0 l/m 0 min 0 min 86 W/m 12,9 km/h (3 Bft) 100,00 %
02.10.2019 12:40 13,8 C 16,1 C 18,3 C 73 % 1011,8 hPa 0,0 l/m 0 min 0 min 128 W/m 9,7 km/h (2 Bft) 100,00 %
02.10.2019 12:42 13,8 C 18,3 C 18,3 C 74 % 1011,8 hPa 0,0 l/m 2 min 0 min 712 W/m 12,9 km/h (3 Bft) 100,00 %
02.10.2019 12:44 13,9 C 20,6 C 18,3 C 74 % 1011,8 hPa 0,0 l/m 2 min 0 min 795 W/m 16,1 km/h (3 Bft) 100,00 %
02.10.2019 12:46 14,0 C 21,1 C 18,3 C 75 % 1011,8 hPa 0,0 l/m 2 min 0 min 636 W/m 6,4 km/h (2 Bft) 100,00 %
02.10.2019 12:48 14,2 C 20,6 C 18,3 C 76 % 1011,8 hPa 0,0 l/m 2 min 0 min 420 W/m 6,4 km/h (2 Bft) 100,00 %
02.10.2019 12:50 14,2 C 20,0 C 18,3 C 75 % 1011,9 hPa 0,0 l/m 2 min 0 min 674 W/m 9,7 km/h (2 Bft) 100,00 %
02.10.2019 12:52 14,2 C 17,8 C 18,3 C 74 % 1012,0 hPa 0,0 l/m 2 min 0 min 294 W/m 9,7 km/h (2 Bft) 100,00 %
02.10.2019 12:54 14,2 C 16,7 C 18,3 C 73 % 1012,0 hPa 0,0 l/m 0 min 0 min 230 W/m 6,4 km/h (2 Bft) 100,00 %
02.10.2019 12:56 14,2 C 16,1 C 18,3 C 74 % 1011,9 hPa 0,0 l/m 0 min 0 min 240 W/m 9,7 km/h (2 Bft) 100,00 %
02.10.2019 12:58 14,2 C 16,1 C 18,3 C 73 % 1012,0 hPa 0,0 l/m 0 min 0 min 253 W/m 16,1 km/h (3 Bft) 100,00 %
02.10.2019 13:00 14,2 C 16,1 C 18,3 C 72 % 1012,0 hPa 0,0 l/m 0 min 0 min 203 W/m 6,4 km/h (2 Bft) 100,00 %
02.10.2019 13:02 14,2 C 16,1 C 18,3 C 73 % 1012,0 hPa 0,0 l/m 0 min 0 min 217 W/m 12,9 km/h (3 Bft) 97,83 %
02.10.2019 13:04 14,2 C 15,0 C 18,3 C 73 % 1012,0 hPa 0,0 l/m 0 min 0 min 192 W/m 9,7 km/h (2 Bft) 100,00 %
02.10.2019 13:06 14,2 C 14,4 C 18,3 C 72 % 1012,0 hPa 0,0 l/m 0 min 0 min 138 W/m 6,4 km/h (2 Bft) 100,00 %
02.10.2019 13:08 14,2 C 14,4 C 18,3 C 73 % 1012,0 hPa 0,0 l/m 0 min 0 min 160 W/m 6,4 km/h (2 Bft) 100,00 %
02.10.2019 13:10 14,2 C 14,4 C 18,3 C 73 % 1012,0 hPa 0,0 l/m 0 min 0 min 215 W/m 9,7 km/h (2 Bft) 95,74 %
02.10.2019 13:12 14,2 C 17,8 C 18,3 C 74 % 1012,1 hPa 0,0 l/m 2 min 0 min 331 W/m 6,4 km/h (2 Bft) 97,87 %
02.10.2019 13:14 14,2 C 20,6 C 18,3 C 76 % 1012,1 hPa 0,0 l/m 2 min 0 min 804 W/m 6,4 km/h (2 Bft) 97,83 %
02.10.2019 13:16 14,3 C 21,7 C 18,3 C 76 % 1012,1 hPa 0,0 l/m 2 min 0 min 798 W/m 6,4 km/h (2 Bft) 97,87 %
02.10.2019 13:18 14,4 C 21,7 C 18,3 C 75 % 1012,1 hPa 0,0 l/m 2 min 0 min 587 W/m 6,4 km/h (2 Bft) 93,62 %
02.10.2019 13:20 14,6 C 19,4 C 18,3 C 74 % 1012,1 hPa 0,0 l/m 2 min 0 min 598 W/m 25,7 km/h (4 Bft) 97,87 %
02.10.2019 13:22 14,6 C 17,2 C 18,3 C 74 % 1012,1 hPa 0,0 l/m 0 min 0 min 155 W/m 12,9 km/h (3 Bft) 97,87 %
02.10.2019 13:24 14,6 C 16,1 C 18,3 C 73 % 1012,1 hPa 0,0 l/m 0 min 0 min 133 W/m 6,4 km/h (2 Bft) 95,74 %
02.10.2019 13:26 14,6 C 15,0 C 18,3 C 72 % 1012,2 hPa 0,0 l/m 0 min 0 min 123 W/m 9,7 km/h (2 Bft) 97,83 %
02.10.2019 13:28 14,5 C 14,4 C 18,3 C 71 % 1012,2 hPa 0,0 l/m 0 min 0 min 129 W/m 9,7 km/h (2 Bft) 97,87 %
02.10.2019 13:30 14,5 C 15,0 C 18,3 C 73 % 1012,2 hPa 0,0 l/m 0 min 2 min 168 W/m 9,7 km/h (2 Bft) 97,87 %
02.10.2019 13:32 14,4 C 14,4 C 18,3 C 73 % 1012,2 hPa 0,0 l/m 0 min 0 min 137 W/m 9,7 km/h (2 Bft) 97,87 %
02.10.2019 13:34 14,4 C 14,4 C 18,3 C 74 % 1012,2 hPa 0,0 l/m 0 min 0 min 144 W/m 9,7 km/h (2 Bft) 97,87 %
02.10.2019 13:36 14,3 C 13,9 C 18,3 C 74 % 1012,2 hPa 0,0 l/m 0 min 0 min 146 W/m 6,4 km/h (2 Bft) 95,65 %
02.10.2019 13:38 14,2 C 13,9 C 18,3 C 74 % 1012,2 hPa 0,0 l/m 0 min 0 min 150 W/m 6,4 km/h (2 Bft) 97,87 %
02.10.2019 13:40 14,2 C 14,4 C 18,3 C 73 % 1012,2 hPa 0,0 l/m 0 min 0 min 195 W/m 9,7 km/h (2 Bft) 95,74 %
02.10.2019 13:42 14,2 C 16,7 C 18,3 C 74 % 1012,2 hPa 0,0 l/m 0 min 0 min 206 W/m 6,4 km/h (2 Bft) 97,87 %
02.10.2019 13:44 14,2 C 18,3 C 18,3 C 76 % 1012,2 hPa 0,0 l/m 2 min 0 min 662 W/m 6,4 km/h (2 Bft) 97,87 %
02.10.2019 13:46 14,2 C 17,8 C 18,3 C 75 % 1012,2 hPa 0,0 l/m 2 min 0 min 738 W/m 9,7 km/h (2 Bft) 97,87 %
02.10.2019 13:48 14,2 C 17,8 C 18,3 C 75 % 1012,2 hPa 0,0 l/m 2 min 0 min 738 W/m 6,4 km/h (2 Bft) 97,83 %
02.10.2019 13:50 14,2 C 19,4 C 18,3 C 76 % 1012,2 hPa 0,0 l/m 2 min 0 min 347 W/m 9,7 km/h (2 Bft) 97,87 %
02.10.2019 13:52 14,3 C 21,1 C 18,3 C 75 % 1012,2 hPa 0,0 l/m 2 min 0 min 677 W/m 12,9 km/h (3 Bft) 95,74 %
02.10.2019 13:54 14,4 C 20,0 C 18,3 C 74 % 1012,3 hPa 0,0 l/m 2 min 0 min 528 W/m 16,1 km/h (3 Bft) 100,00 %
02.10.2019 13:56 14,5 C 19,4 C 18,3 C 72 % 1012,2 hPa 0,0 l/m 2 min 0 min 372 W/m 9,7 km/h (2 Bft) 97,87 %
02.10.2019 13:58 14,6 C 19,4 C 18,3 C 72 % 1012,2 hPa 0,0 l/m 2 min 0 min 682 W/m 9,7 km/h (2 Bft) 97,87 %
02.10.2019 14:00 14,6 C 20,0 C 18,3 C 71 % 1012,2 hPa 0,0 l/m 2 min 0 min 682 W/m 9,7 km/h (2 Bft) 97,83 %
02.10.2019 14:02 14,6 C 19,4 C 18,3 C 70 % 1012,2 hPa 0,0 l/m 0 min 0 min 188 W/m 16,1 km/h (3 Bft) 97,87 %
02.10.2019 14:04 14,7 C 20,0 C 18,3 C 71 % 1012,2 hPa 0,0 l/m 2 min 0 min 680 W/m 6,4 km/h (2 Bft) 100,00 %
02.10.2019 14:06 14,8 C 21,1 C 18,3 C 72 % 1012,2 hPa 0,0 l/m 2 min 0 min 687 W/m 6,4 km/h (2 Bft) 95,74 %
02.10.2019 14:08 14,9 C 21,7 C 18,3 C 72 % 1012,2 hPa 0,0 l/m 2 min 0 min 703 W/m 12,9 km/h (3 Bft) 97,87 %
02.10.2019 14:10 15,0 C 20,6 C 18,3 C 70 % 1012,3 hPa 0,0 l/m 2 min 0 min 708 W/m 12,9 km/h (3 Bft) 97,87 %
02.10.2019 14:12 15,0 C 17,8 C 18,3 C 67 % 1012,3 hPa 0,0 l/m 2 min 0 min 312 W/m 6,4 km/h (2 Bft) 97,83 %
02.10.2019 14:14 15,0 C 16,7 C 18,3 C 68 % 1012,2 hPa 0,0 l/m 0 min 0 min 195 W/m 6,4 km/h (2 Bft) 97,87 %
02.10.2019 14:16 15,0 C 16,1 C 18,3 C 69 % 1012,3 hPa 0,0 l/m 0 min 0 min 215 W/m 6,4 km/h (2 Bft) 97,87 %
02.10.2019 14:18 14,9 C 16,1 C 18,3 C 68 % 1012,3 hPa 0,0 l/m 0 min 0 min 230 W/m 12,9 km/h (3 Bft) 95,74 %
02.10.2019 14:20 14,9 C 15,6 C 18,3 C 67 % 1012,3 hPa 0,0 l/m 0 min 0 min 242 W/m 12,9 km/h (3 Bft) 97,87 %
02.10.2019 14:22 14,8 C 15,6 C 18,3 C 68 % 1012,3 hPa 0,0 l/m 0 min 0 min 224 W/m 9,7 km/h (2 Bft) 97,83 %
02.10.2019 14:24 14,8 C 16,1 C 18,3 C 68 % 1012,4 hPa 0,0 l/m 0 min 0 min 258 W/m 9,7 km/h (2 Bft) 97,87 %
02.10.2019 14:26 14,7 C 15,6 C 18,3 C 68 % 1012,4 hPa 0,0 l/m 0 min 0 min 132 W/m 6,4 km/h (2 Bft) 97,87 %
02.10.2019 14:28 14,7 C 15,0 C 18,3 C 69 % 1012,4 hPa 0,0 l/m 0 min 0 min 102 W/m 6,4 km/h (2 Bft) 97,87 %
02.10.2019 14:30 14,6 C 14,4 C 18,3 C 69 % 1012,5 hPa 0,0 l/m 0 min 0 min 96 W/m 9,7 km/h (2 Bft) 97,87 %
02.10.2019 14:32 14,6 C 13,9 C 18,3 C 69 % 1012,4 hPa 0,0 l/m 0 min 0 min 78 W/m 9,7 km/h (2 Bft) 97,87 %
02.10.2019 14:34 14,5 C 13,3 C 18,3 C 69 % 1012,5 hPa 0,0 l/m 0 min 0 min 56 W/m 9,7 km/h (2 Bft) 95,65 %
02.10.2019 14:36 14,4 C 12,8 C 18,3 C 69 % 1012,6 hPa 0,0 l/m 0 min 0 min 41 W/m 19,3 km/h (3 Bft) 97,87 %
02.10.2019 14:38 14,2 C 12,2 C 18,3 C 69 % 1012,6 hPa 0,0 l/m 0 min 2 min 33 W/m 22,5 km/h (4 Bft) 97,87 %
02.10.2019 14:40 13,8 C 11,7 C 18,3 C 71 % 1012,5 hPa 0,0 l/m 0 min 0 min 33 W/m 19,3 km/h (3 Bft) 97,87 %
02.10.2019 14:42 13,6 C 11,7 C 18,3 C 72 % 1012,7 hPa 0,0 l/m 0 min 2 min 32 W/m 25,7 km/h (4 Bft) 95,74 %
02.10.2019 14:44 13,3 C 11,1 C 18,3 C 73 % 1012,9 hPa 0,0 l/m 0 min 2 min 32 W/m 19,3 km/h (3 Bft) 97,87 %
02.10.2019 14:46 13,1 C 10,6 C 18,3 C 74 % 1012,9 hPa 0,0 l/m 0 min 0 min 30 W/m 22,5 km/h (4 Bft) 97,83 %
02.10.2019 14:48 12,9 C 10,6 C 18,3 C 74 % 1012,9 hPa 0,0 l/m 0 min 0 min 31 W/m 32,2 km/h (5 Bft) 97,87 %
02.10.2019 14:50 12,8 C 10,6 C 18,3 C 75 % 1012,9 hPa 0,0 l/m 0 min 2 min 34 W/m 16,1 km/h (3 Bft) 100,00 %
02.10.2019 14:52 12,6 C 10,6 C 18,3 C 76 % 1012,9 hPa 0,0 l/m 0 min 2 min 42 W/m 16,1 km/h (3 Bft) 97,87 %
02.10.2019 14:54 12,5 C 10,0 C 18,3 C 77 % 1013,0 hPa 0,0 l/m 0 min 2 min 53 W/m 12,9 km/h (3 Bft) 100,00 %
02.10.2019 14:56 12,3 C 10,0 C 18,3 C 78 % 1013,0 hPa 0,0 l/m 0 min 2 min 65 W/m 9,7 km/h (2 Bft) 100,00 %
02.10.2019 14:58 12,2 C 10,0 C 18,3 C 79 % 1013,0 hPa 0,0 l/m 0 min 2 min 78 W/m 9,7 km/h (2 Bft) 100,00 %
02.10.2019 15:00 12,2 C 10,0 C 18,3 C 80 % 1013,0 hPa 0,0 l/m 0 min 2 min 90 W/m 9,7 km/h (2 Bft) 97,87 %
02.10.2019 15:02 12,1 C 10,0 C 18,3 C 81 % 1013,0 hPa 0,0 l/m 0 min 0 min 95 W/m 12,9 km/h (3 Bft) 100,00 %
02.10.2019 15:04 11,9 C 10,6 C 18,3 C 81 % 1012,9 hPa 0,0 l/m 0 min 0 min 94 W/m 6,4 km/h (2 Bft) 97,87 %
02.10.2019 15:06 11,9 C 10,6 C 18,3 C 82 % 1012,9 hPa 0,0 l/m 0 min 0 min 95 W/m 9,7 km/h (2 Bft) 93,62 %
02.10.2019 15:08 11,9 C 10,6 C 18,3 C 83 % 1013,0 hPa 0,0 l/m 0 min 0 min 100 W/m 6,4 km/h (2 Bft) 100,00 %
02.10.2019 15:10 11,8 C 11,1 C 18,3 C 83 % 1013,0 hPa 0,0 l/m 0 min 0 min 105 W/m 3,2 km/h (1 Bft) 100,00 %
02.10.2019 15:12 11,8 C 11,1 C 18,3 C 84 % 1013,0 hPa 0,0 l/m 0 min 0 min 101 W/m 6,4 km/h (2 Bft) 97,87 %
02.10.2019 15:14 11,7 C 11,7 C 18,3 C 84 % 1013,0 hPa 0,0 l/m 0 min 0 min 112 W/m 6,4 km/h (2 Bft) 100,00 %
02.10.2019 15:16 11,7 C 11,7 C 18,3 C 84 % 1013,1 hPa 0,0 l/m 0 min 0 min 124 W/m 6,4 km/h (2 Bft) 100,00 %
02.10.2019 15:18 11,7 C 13,9 C 18,3 C 84 % 1013,1 hPa 0,0 l/m 0 min 0 min 114 W/m 6,4 km/h (2 Bft) 100,00 %
02.10.2019 15:20 11,7 C 15,0 C 18,3 C 84 % 1013,1 hPa 0,0 l/m 2 min 0 min 546 W/m 12,9 km/h (3 Bft) 97,87 %
02.10.2019 15:22 11,7 C 14,4 C 18,3 C 84 % 1013,1 hPa 0,0 l/m 2 min 0 min 531 W/m 16,1 km/h (3 Bft) 97,83 %
02.10.2019 15:24 11,7 C 15,0 C 18,3 C 83 % 1013,2 hPa 0,0 l/m 2 min 0 min 453 W/m 9,7 km/h (2 Bft) 100,00 %
02.10.2019 15:26 11,8 C 13,9 C 18,3 C 82 % 1013,2 hPa 0,0 l/m 2 min 0 min 263 W/m 9,7 km/h (2 Bft) 100,00 %
02.10.2019 15:28 11,8 C 14,4 C 18,3 C 81 % 1013,1 hPa 0,0 l/m 0 min 0 min 231 W/m 6,4 km/h (2 Bft) 95,74 %
02.10.2019 15:30 11,9 C 15,0 C 18,3 C 81 % 1013,1 hPa 0,0 l/m 2 min 0 min 244 W/m 9,7 km/h (2 Bft) 97,87 %
02.10.2019 15:32 12,0 C 14,4 C 18,3 C 80 % 1013,2 hPa 0,0 l/m 2 min 0 min 259 W/m 12,9 km/h (3 Bft) 100,00 %
02.10.2019 15:34 12,1 C 13,9 C 18,3 C 80 % 1013,2 hPa 0,0 l/m 0 min 0 min 235 W/m 12,9 km/h (3 Bft) 100,00 %
02.10.2019 15:36 12,1 C 13,3 C 18,3 C 79 % 1013,2 hPa 0,0 l/m 0 min 0 min 202 W/m 22,5 km/h (4 Bft) 97,87 %
02.10.2019 15:38 12,2 C 12,8 C 18,3 C 78 % 1013,2 hPa 0,0 l/m 0 min 0 min 192 W/m 12,9 km/h (3 Bft) 97,87 %
02.10.2019 15:40 12,2 C 12,8 C 18,3 C 79 % 1013,3 hPa 0,0 l/m 0 min 0 min 179 W/m 12,9 km/h (3 Bft) 97,87 %
02.10.2019 15:42 12,2 C 12,8 C 18,3 C 79 % 1013,3 hPa 0,0 l/m 0 min 0 min 180 W/m 6,4 km/h (2 Bft) 100,00 %
02.10.2019 15:44 12,2 C 12,8 C 18,3 C 79 % 1013,3 hPa 0,0 l/m 0 min 0 min 182 W/m 6,4 km/h (2 Bft) 100,00 %
02.10.2019 15:46 12,3 C 12,8 C 18,3 C 79 % 1013,3 hPa 0,0 l/m 0 min 0 min 199 W/m 9,7 km/h (2 Bft) 97,87 %
02.10.2019 15:48 12,3 C 12,8 C 18,3 C 79 % 1013,3 hPa 0,0 l/m 0 min 0 min 210 W/m 9,7 km/h (2 Bft) 97,87 %
02.10.2019 15:50 12,3 C 13,3 C 18,3 C 80 % 1013,3 hPa 0,0 l/m 0 min 0 min 197 W/m 6,4 km/h (2 Bft) 97,87 %
02.10.2019 15:52 12,4 C 13,3 C 18,3 C 79 % 1013,4 hPa 0,0 l/m 0 min 0 min 163 W/m 12,9 km/h (3 Bft) 95,74 %
02.10.2019 15:54 12,4 C 12,8 C 18,3 C 79 % 1013,3 hPa 0,0 l/m 0 min 0 min 147 W/m 12,9 km/h (3 Bft) 95,74 %
02.10.2019 15:56 12,4 C 12,8 C 18,3 C 79 % 1013,4 hPa 0,0 l/m 0 min 0 min 157 W/m 9,7 km/h (2 Bft) 95,65 %
02.10.2019 15:58 12,4 C 13,3 C 18,3 C 78 % 1013,3 hPa 0,0 l/m 0 min 0 min 192 W/m 9,7 km/h (2 Bft) 95,74 %
02.10.2019 16:00 12,4 C 15,0 C 18,3 C 79 % 1013,4 hPa 0,0 l/m 2 min 0 min 292 W/m 9,7 km/h (2 Bft) 93,62 %
02.10.2019 16:02 12,5 C 14,4 C 18,3 C 78 % 1013,3 hPa 0,0 l/m 2 min 0 min 478 W/m 12,9 km/h (3 Bft) 95,83 %
02.10.2019 16:04 12,5 C 15,6 C 18,3 C 77 % 1013,4 hPa 0,0 l/m 2 min 0 min 269 W/m 19,3 km/h (3 Bft) 93,62 %
02.10.2019 16:06 12,6 C 15,0 C 18,3 C 77 % 1013,4 hPa 0,0 l/m 2 min 0 min 275 W/m 9,7 km/h (2 Bft) 95,74 %
02.10.2019 16:08 12,6 C 15,0 C 18,3 C 77 % 1013,4 hPa 0,0 l/m 2 min 0 min 237 W/m 19,3 km/h (3 Bft) 95,65 %
02.10.2019 16:10 12,7 C 16,1 C 18,3 C 76 % 1013,4 hPa 0,0 l/m 2 min 0 min 444 W/m 12,9 km/h (3 Bft) 95,74 %
02.10.2019 16:12 12,7 C 16,7 C 18,3 C 76 % 1013,4 hPa 0,0 l/m 2 min 0 min 481 W/m 9,7 km/h (2 Bft) 95,74 %
02.10.2019 16:14 12,8 C 16,1 C 18,3 C 76 % 1013,5 hPa 0,0 l/m 2 min 0 min 478 W/m 9,7 km/h (2 Bft) 95,74 %
02.10.2019 16:16 12,9 C 16,7 C 18,3 C 76 % 1013,6 hPa 0,0 l/m 2 min 0 min 456 W/m 9,7 km/h (2 Bft) 95,74 %
02.10.2019 16:18 13,0 C 17,2 C 18,3 C 75 % 1013,5 hPa 0,0 l/m 2 min 0 min 440 W/m 19,3 km/h (3 Bft) 95,74 %
02.10.2019 16:20 13,1 C 17,8 C 18,3 C 75 % 1013,6 hPa 0,0 l/m 2 min 0 min 434 W/m 12,9 km/h (3 Bft) 95,65 %
02.10.2019 16:22 13,2 C 17,8 C 18,3 C 75 % 1013,5 hPa 0,0 l/m 2 min 0 min 429 W/m 9,7 km/h (2 Bft) 95,74 %
02.10.2019 16:24 13,3 C 17,8 C 18,3 C 75 % 1013,5 hPa 0,0 l/m 2 min 0 min 427 W/m 6,4 km/h (2 Bft) 95,74 %
02.10.2019 16:26 13,4 C 17,8 C 18,3 C 75 % 1013,5 hPa 0,0 l/m 2 min 0 min 422 W/m 9,7 km/h (2 Bft) 95,74 %
02.10.2019 16:28 13,6 C 17,8 C 18,3 C 74 % 1013,5 hPa 0,0 l/m 2 min 0 min 418 W/m 6,4 km/h (2 Bft) 95,74 %
02.10.2019 16:30 13,6 C 17,8 C 18,3 C 75 % 1013,5 hPa 0,0 l/m 2 min 0 min 420 W/m 12,9 km/h (3 Bft) 93,48 %
02.10.2019 16:32 13,7 C 17,2 C 18,3 C 75 % 1013,6 hPa 0,0 l/m 2 min 0 min 422 W/m 6,4 km/h (2 Bft) 95,74 %
02.10.2019 16:34 13,8 C 15,6 C 18,3 C 75 % 1013,6 hPa 0,0 l/m 2 min 0 min 285 W/m 9,7 km/h (2 Bft) 95,74 %
02.10.2019 16:36 13,8 C 13,9 C 18,3 C 74 % 1013,7 hPa 0,0 l/m 0 min 0 min 97 W/m 16,1 km/h (3 Bft) 97,87 %
02.10.2019 16:38 13,7 C 13,3 C 18,3 C 75 % 1013,7 hPa 0,0 l/m 0 min 2 min 49 W/m 9,7 km/h (2 Bft) 97,87 %
02.10.2019 16:40 13,7 C 12,8 C 18,3 C 75 % 1014,1 hPa 0,0 l/m 0 min 2 min 29 W/m 16,1 km/h (3 Bft) 95,74 %
02.10.2019 16:42 13,4 C 11,7 C 18,3 C 74 % 1014,1 hPa 0,0 l/m 0 min 2 min 33 W/m 25,7 km/h (4 Bft) 95,65 %
02.10.2019 16:44 13,3 C 10,6 C 18,3 C 75 % 1014,1 hPa 0,0 l/m 0 min 2 min 29 W/m 19,3 km/h (3 Bft) 95,74 %
02.10.2019 16:46 13,1 C 9,4 C 18,3 C 75 % 1014,2 hPa 0,2 l/m 0 min 2 min 26 W/m 16,1 km/h (3 Bft) 95,74 %
02.10.2019 16:48 12,8 C 8,9 C 18,3 C 76 % 1014,2 hPa 0,0 l/m 0 min 2 min 34 W/m 12,9 km/h (3 Bft) 95,74 %
02.10.2019 16:50 12,6 C 8,9 C 18,3 C 77 % 1014,1 hPa 0,0 l/m 0 min 2 min 61 W/m 6,4 km/h (2 Bft) 95,74 %
02.10.2019 16:52 12,4 C 10,0 C 18,3 C 79 % 1014,1 hPa 0,0 l/m 0 min 2 min 123 W/m 9,7 km/h (2 Bft) 91,49 %
02.10.2019 16:54 12,3 C 11,1 C 18,3 C 80 % 1014,1 hPa 0,0 l/m 2 min 0 min 302 W/m 6,4 km/h (2 Bft) 95,65 %
02.10.2019 16:56 12,3 C 11,7 C 18,3 C 81 % 1014,1 hPa 0,0 l/m 2 min 0 min 264 W/m 3,2 km/h (1 Bft) 95,74 %
02.10.2019 16:58 12,3 C 11,7 C 18,3 C 82 % 1014,0 hPa 0,0 l/m 2 min 0 min 246 W/m 19,3 km/h (3 Bft) 95,74 %
02.10.2019 17:00 12,2 C 13,3 C 18,3 C 82 % 1014,0 hPa 0,0 l/m 2 min 0 min 316 W/m 3,2 km/h (1 Bft) 97,87 %
02.10.2019 17:02 12,2 C 14,4 C 18,3 C 83 % 1014,0 hPa 0,0 l/m 2 min 0 min 318 W/m 12,9 km/h (3 Bft) 97,87 %
02.10.2019 17:04 12,2 C 16,1 C 18,3 C 84 % 1014,0 hPa 0,0 l/m 2 min 0 min 314 W/m 6,4 km/h (2 Bft) 97,87 %
02.10.2019 17:06 12,3 C 16,7 C 18,3 C 84 % 1014,0 hPa 0,0 l/m 2 min 0 min 309 W/m 3,2 km/h (1 Bft) 95,65 %
02.10.2019 17:08 12,3 C 16,7 C 18,3 C 84 % 1014,0 hPa 0,0 l/m 2 min 0 min 403 W/m 12,9 km/h (3 Bft) 97,87 %
02.10.2019 17:10 12,4 C 16,7 C 18,3 C 84 % 1014,1 hPa 0,0 l/m 2 min 0 min 378 W/m 9,7 km/h (2 Bft) 95,74 %
02.10.2019 17:12 12,4 C 15,6 C 18,3 C 84 % 1014,1 hPa 0,0 l/m 2 min 0 min 249 W/m 6,4 km/h (2 Bft) 97,87 %
02.10.2019 17:14 12,4 C 14,4 C 18,3 C 83 % 1014,1 hPa 0,0 l/m 2 min 0 min 150 W/m 6,4 km/h (2 Bft) 97,87 %
02.10.2019 17:16 12,4 C 13,3 C 18,3 C 83 % 1014,1 hPa 0,0 l/m 0 min 0 min 127 W/m 6,4 km/h (2 Bft) 97,87 %
02.10.2019 17:18 12,4 C 12,8 C 18,3 C 82 % 1014,2 hPa 0,0 l/m 0 min 0 min 107 W/m 6,4 km/h (2 Bft) 97,83 %
02.10.2019 17:20 12,3 C 12,2 C 18,3 C 82 % 1014,2 hPa 0,0 l/m 0 min 0 min 98 W/m 3,2 km/h (1 Bft) 97,87 %
02.10.2019 17:22 12,3 C 11,7 C 18,3 C 82 % 1014,2 hPa 0,0 l/m 0 min 0 min 94 W/m 6,4 km/h (2 Bft) 95,74 %
02.10.2019 17:24 12,2 C 11,7 C 18,3 C 82 % 1014,2 hPa 0,0 l/m 0 min 0 min 90 W/m 6,4 km/h (2 Bft) 97,87 %
02.10.2019 17:26 12,2 C 11,7 C 18,3 C 83 % 1014,2 hPa 0,0 l/m 0 min 0 min 86 W/m 6,4 km/h (2 Bft) 100,00 %
02.10.2019 17:28 12,2 C 11,1 C 18,3 C 83 % 1014,2 hPa 0,0 l/m 0 min 0 min 83 W/m 6,4 km/h (2 Bft) 100,00 %
02.10.2019 17:30 12,1 C 11,1 C 18,3 C 83 % 1014,2 hPa 0,0 l/m 0 min 0 min 85 W/m 3,2 km/h (1 Bft) 100,00 %
02.10.2019 17:32 12,1 C 11,1 C 18,3 C 83 % 1014,2 hPa 0,0 l/m 0 min 0 min 89 W/m 3,2 km/h (1 Bft) 97,87 %
02.10.2019 17:34 12,1 C 11,7 C 18,3 C 83 % 1014,2 hPa 0,0 l/m 2 min 0 min 125 W/m 6,4 km/h (2 Bft) 100,00 %
02.10.2019 17:36 12,0 C 12,2 C 18,3 C 83 % 1014,2 hPa 0,0 l/m 2 min 0 min 153 W/m 3,2 km/h (1 Bft) 100,00 %
02.10.2019 17:38 12,0 C 12,2 C 18,3 C 83 % 1014,2 hPa 0,0 l/m 2 min 0 min 131 W/m 3,2 km/h (1 Bft) 100,00 %
02.10.2019 17:40 12,0 C 12,2 C 18,3 C 83 % 1014,2 hPa 0,0 l/m 0 min 0 min 93 W/m 3,2 km/h (1 Bft) 100,00 %
02.10.2019 17:42 12,0 C 11,7 C 18,3 C 84 % 1014,1 hPa 0,0 l/m 0 min 0 min 93 W/m 6,4 km/h (2 Bft) 97,87 %
02.10.2019 17:44 11,9 C 11,7 C 18,3 C 84 % 1014,2 hPa 0,0 l/m 0 min 0 min 92 W/m 6,4 km/h (2 Bft) 100,00 %
02.10.2019 17:46 11,9 C 11,7 C 18,3 C 84 % 1014,1 hPa 0,0 l/m 0 min 0 min 84 W/m 3,2 km/h (1 Bft) 100,00 %
02.10.2019 17:48 11,9 C 11,7 C 18,3 C 84 % 1014,2 hPa 0,0 l/m 0 min 0 min 69 W/m 0,0 km/h (0 Bft) 100,00 %
02.10.2019 17:50 11,9 C 11,7 C 18,3 C 85 % 1014,2 hPa 0,0 l/m 0 min 0 min 65 W/m 6,4 km/h (2 Bft) 100,00 %
02.10.2019 17:52 11,9 C 11,7 C 18,3 C 85 % 1014,2 hPa 0,0 l/m 0 min 0 min 63 W/m 6,4 km/h (2 Bft) 100,00 %
02.10.2019 17:54 11,9 C 11,1 C 18,3 C 85 % 1014,3 hPa 0,0 l/m 0 min 0 min 40 W/m 6,4 km/h (2 Bft) 100,00 %
02.10.2019 17:56 11,9 C 11,1 C 18,3 C 85 % 1014,3 hPa 0,0 l/m 0 min 0 min 27 W/m 3,2 km/h (1 Bft) 100,00 %
02.10.2019 17:58 11,8 C 11,1 C 18,3 C 85 % 1014,3 hPa 0,0 l/m 0 min 0 min 20 W/m 6,4 km/h (2 Bft) 100,00 %
02.10.2019 18:00 11,8 C 11,1 C 18,3 C 85 % 1014,3 hPa 0,0 l/m 0 min 0 min 18 W/m 3,2 km/h (1 Bft) 100,00 %
02.10.2019 18:02 11,8 C 10,6 C 18,3 C 85 % 1014,4 hPa 0,0 l/m 0 min 0 min 16 W/m 3,2 km/h (1 Bft) 100,00 %
02.10.2019 18:04 11,8 C 10,6 C 18,3 C 85 % 1014,4 hPa 0,0 l/m 0 min 0 min 13 W/m 3,2 km/h (1 Bft) 100,00 %
02.10.2019 18:08 11,7 C 10,6 C 18,3 C 86 % 1014,6 hPa 0,0 l/m 0 min 4 min 9 W/m 12,9 km/h (3 Bft) 100,00 %
02.10.2019 18:10 11,7 C 10,6 C 18,3 C 86 % 1014,6 hPa 0,0 l/m 0 min 2 min 9 W/m 12,9 km/h (3 Bft) 100,00 %
02.10.2019 18:12 11,7 C 10,0 C 18,3 C 86 % 1014,6 hPa 0,0 l/m 0 min 2 min 12 W/m 12,9 km/h (3 Bft) 100,00 %
02.10.2019 18:14 11,7 C 10,0 C 18,3 C 86 % 1014,6 hPa 0,0 l/m 0 min 0 min 13 W/m 3,2 km/h (1 Bft) 100,00 %
02.10.2019 18:16 11,6 C 10,0 C 18,3 C 86 % 1014,7 hPa 0,0 l/m 0 min 0 min 14 W/m 0,0 km/h (0 Bft) 100,00 %
02.10.2019 18:18 11,6 C 10,0 C 18,3 C 86 % 1014,7 hPa 0,0 l/m 0 min 0 min 17 W/m 6,4 km/h (2 Bft) 100,00 %
02.10.2019 18:20 11,6 C 10,6 C 18,3 C 86 % 1014,8 hPa 0,0 l/m 0 min 0 min 26 W/m 9,7 km/h (2 Bft) 100,00 %
02.10.2019 18:22 11,5 C 10,6 C 18,3 C 87 % 1014,8 hPa 0,0 l/m 0 min 0 min 33 W/m 9,7 km/h (2 Bft) 100,00 %
02.10.2019 18:24 11,5 C 10,6 C 18,3 C 87 % 1014,7 hPa 0,0 l/m 0 min 0 min 37 W/m 3,2 km/h (1 Bft) 97,87 %
02.10.2019 18:26 11,4 C 10,6 C 18,3 C 87 % 1014,8 hPa 0,0 l/m 0 min 0 min 45 W/m 6,4 km/h (2 Bft) 100,00 %
02.10.2019 18:28 11,4 C 10,6 C 18,3 C 87 % 1014,8 hPa 0,0 l/m 0 min 0 min 42 W/m 12,9 km/h (3 Bft) 100,00 %
02.10.2019 18:30 11,4 C 10,6 C 18,3 C 86 % 1014,8 hPa 0,0 l/m 0 min 0 min 46 W/m 6,4 km/h (2 Bft) 100,00 %
02.10.2019 18:32 11,4 C 10,6 C 18,3 C 86 % 1014,8 hPa 0,0 l/m 2 min 0 min 47 W/m 6,4 km/h (2 Bft) 97,87 %
02.10.2019 18:34 11,3 C 10,6 C 18,3 C 87 % 1014,9 hPa 0,0 l/m 2 min 0 min 42 W/m 6,4 km/h (2 Bft) 97,83 %
02.10.2019 18:36 11,3 C 10,6 C 18,3 C 87 % 1014,8 hPa 0,0 l/m 0 min 0 min 35 W/m 3,2 km/h (1 Bft) 100,00 %
02.10.2019 18:38 11,3 C 10,6 C 18,3 C 87 % 1014,9 hPa 0,0 l/m 0 min 0 min 32 W/m 0,0 km/h (0 Bft) 100,00 %
02.10.2019 18:40 11,3 C 10,0 C 18,3 C 87 % 1014,9 hPa 0,0 l/m 0 min 0 min 31 W/m 6,4 km/h (2 Bft) 97,87 %
02.10.2019 18:42 11,2 C 10,0 C 18,3 C 87 % 1015,0 hPa 0,0 l/m 0 min 0 min 29 W/m 3,2 km/h (1 Bft) 95,74 %
02.10.2019 18:44 11,2 C 10,0 C 18,3 C 87 % 1015,1 hPa 0,0 l/m 0 min 0 min 26 W/m 6,4 km/h (2 Bft) 97,87 %
02.10.2019 18:46 11,2 C 10,0 C 18,3 C 87 % 1015,2 hPa 0,0 l/m 0 min 0 min 25 W/m 0,0 km/h (0 Bft) 97,83 %
02.10.2019 18:48 11,1 C 10,0 C 18,3 C 87 % 1015,2 hPa 0,0 l/m 0 min 0 min 23 W/m 3,2 km/h (1 Bft) 95,74 %
02.10.2019 18:50 11,1 C 10,0 C 18,3 C 87 % 1015,2 hPa 0,0 l/m 0 min 0 min 20 W/m 9,7 km/h (2 Bft) 97,87 %
02.10.2019 18:52 11,1 C 10,0 C 18,3 C 87 % 1015,3 hPa 0,0 l/m 0 min 0 min 19 W/m 3,2 km/h (1 Bft) 93,62 %
02.10.2019 18:54 11,0 C 10,0 C 18,3 C 87 % 1015,3 hPa 0,0 l/m 0 min 0 min 18 W/m 6,4 km/h (2 Bft) 97,87 %
02.10.2019 18:56 11,0 C 9,4 C 18,3 C 87 % 1015,2 hPa 0,0 l/m 0 min 0 min 15 W/m 3,2 km/h (1 Bft) 95,65 %
02.10.2019 18:58 10,9 C 9,4 C 18,3 C 87 % 1015,3 hPa 0,0 l/m 0 min 0 min 13 W/m 0,0 km/h (0 Bft) 97,87 %
02.10.2019 19:00 10,9 C 9,4 C 18,3 C 87 % 1015,2 hPa 0,0 l/m 0 min 0 min 12 W/m 0,0 km/h (0 Bft) 97,87 %
02.10.2019 19:02 10,9 C 9,4 C 18,3 C 87 % 1015,3 hPa 0,0 l/m 0 min 0 min 11 W/m 3,2 km/h (1 Bft) 93,62 %
02.10.2019 19:04 10,9 C 9,4 C 18,3 C 87 % 1015,3 hPa 0,0 l/m 0 min 0 min 9 W/m 0,0 km/h (0 Bft) 95,74 %
02.10.2019 19:06 10,8 C 8,9 C 18,3 C 87 % 1015,3 hPa 0,0 l/m 0 min 0 min 8 W/m 6,4 km/h (2 Bft) 97,87 %
02.10.2019 19:08 10,8 C 8,9 C 18,3 C 87 % 1015,3 hPa 0,0 l/m 0 min 0 min 7 W/m 0,0 km/h (0 Bft) 97,83 %
02.10.2019 19:10 10,8 C 8,9 C 18,3 C 87 % 1015,3 hPa 0,0 l/m 0 min 0 min 6 W/m 3,2 km/h (1 Bft) 95,74 %
02.10.2019 19:12 10,7 C 8,9 C 18,3 C 87 % 1015,3 hPa 0,0 l/m 0 min 0 min 5 W/m 6,4 km/h (2 Bft) 95,74 %
02.10.2019 19:14 10,6 C 8,9 C 18,3 C 87 % 1015,3 hPa 0,0 l/m 0 min 0 min 2 W/m 0,0 km/h (0 Bft) 93,62 %
02.10.2019 19:16 10,6 C 8,9 C 18,3 C 87 % 1015,3 hPa 0,0 l/m 0 min 0 min 0 W/m 3,2 km/h (1 Bft) 91,49 %
02.10.2019 19:18 10,5 C 8,9 C 18,3 C 88 % 1015,3 hPa 0,0 l/m 0 min 0 min 0 W/m 6,4 km/h (2 Bft) 95,74 %
02.10.2019 19:20 10,4 C 8,9 C 18,3 C 88 % 1015,3 hPa 0,0 l/m 0 min 0 min 0 W/m 6,4 km/h (2 Bft) 95,65 %
02.10.2019 19:22 10,4 C 8,9 C 18,3 C 88 % 1015,4 hPa 0,0 l/m 0 min 0 min 0 W/m 6,4 km/h (2 Bft) 95,74 %
02.10.2019 19:24 10,4 C 8,9 C 18,3 C 88 % 1015,3 hPa 0,0 l/m 0 min 0 min 0 W/m 0,0 km/h (0 Bft) 95,74 %
02.10.2019 19:26 10,3 C 8,3 C 18,3 C 88 % 1015,3 hPa 0,0 l/m 0 min 0 min 0 W/m 3,2 km/h (1 Bft) 95,74 %
02.10.2019 19:28 10,2 C 8,9 C 18,3 C 88 % 1015,4 hPa 0,0 l/m 0 min 0 min 0 W/m 0,0 km/h (0 Bft) 93,62 %
02.10.2019 19:30 10,2 C 8,3 C 18,3 C 88 % 1015,4 hPa 0,0 l/m 0 min 0 min 0 W/m 3,2 km/h (1 Bft) 91,49 %
02.10.2019 19:32 10,2 C 8,3 C 18,3 C 88 % 1015,4 hPa 0,0 l/m 0 min 0 min 0 W/m 0,0 km/h (0 Bft) 93,48 %
02.10.2019 19:34 10,1 C 8,3 C 18,3 C 88 % 1015,4 hPa 0,0 l/m 0 min 0 min 0 W/m 0,0 km/h (0 Bft) 93,62 %
02.10.2019 19:36 10,1 C 8,3 C 18,3 C 88 % 1015,4 hPa 0,0 l/m 0 min 0 min 0 W/m 3,2 km/h (1 Bft) 93,62 %
02.10.2019 19:38 10,0 C 8,3 C 18,3 C 88 % 1015,5 hPa 0,0 l/m 0 min 0 min 0 W/m 6,4 km/h (2 Bft) 93,62 %
02.10.2019 19:40 9,9 C 8,3 C 18,3 C 88 % 1015,5 hPa 0,0 l/m 0 min 0 min 0 W/m 6,4 km/h (2 Bft) 89,36 %
02.10.2019 19:42 9,9 C 8,3 C 18,3 C 88 % 1015,5 hPa 0,0 l/m 0 min 0 min 0 W/m 6,4 km/h (2 Bft) 93,62 %
02.10.2019 19:44 9,8 C 8,3 C 18,3 C 88 % 1015,5 hPa 0,0 l/m 0 min 0 min 0 W/m 3,2 km/h (1 Bft) 93,48 %
02.10.2019 19:46 9,8 C 8,3 C 18,3 C 88 % 1015,6 hPa 0,0 l/m 0 min 0 min 0 W/m 6,4 km/h (2 Bft) 91,49 %
02.10.2019 19:48 9,7 C 8,3 C 18,3 C 88 % 1015,6 hPa 0,0 l/m 0 min 0 min 0 W/m 0,0 km/h (0 Bft) 97,87 %
02.10.2019 19:50 9,7 C 8,3 C 18,3 C 88 % 1015,6 hPa 0,0 l/m 0 min 0 min 0 W/m 3,2 km/h (1 Bft) 97,87 %
02.10.2019 19:52 9,7 C 8,3 C 18,3 C 88 % 1015,6 hPa 0,0 l/m 0 min 0 min 0 W/m 3,2 km/h (1 Bft) 97,87 %
02.10.2019 19:54 9,6 C 8,3 C 18,3 C 88 % 1015,7 hPa 0,0 l/m 0 min 0 min 0 W/m 3,2 km/h (1 Bft) 97,83 %
02.10.2019 19:56 9,6 C 8,3 C 18,3 C 88 % 1015,7 hPa 0,0 l/m 0 min 0 min 0 W/m 6,4 km/h (2 Bft) 95,74 %
02.10.2019 19:58 9,5 C 7,8 C 18,3 C 88 % 1015,7 hPa 0,0 l/m 0 min 0 min 0 W/m 9,7 km/h (2 Bft) 97,87 %
02.10.2019 20:00 9,5 C 7,8 C 18,3 C 88 % 1015,7 hPa 0,0 l/m 0 min 0 min 0 W/m 3,2 km/h (1 Bft) 97,87 %
02.10.2019 20:02 9,4 C 7,8 C 18,3 C 88 % 1015,7 hPa 0,0 l/m 0 min 0 min 0 W/m 0,0 km/h (0 Bft) 97,87 %
02.10.2019 20:04 9,4 C 7,8 C 18,3 C 88 % 1015,7 hPa 0,0 l/m 0 min 0 min 0 W/m 0,0 km/h (0 Bft) 95,74 %
02.10.2019 20:06 9,4 C 7,8 C 18,3 C 88 % 1015,7 hPa 0,0 l/m 0 min 0 min 0 W/m 0,0 km/h (0 Bft) 95,65 %
02.10.2019 20:08 9,3 C 7,8 C 18,3 C 88 % 1015,8 hPa 0,0 l/m 0 min 0 min 0 W/m 3,2 km/h (1 Bft) 97,87 %
02.10.2019 20:10 9,3 C 7,8 C 18,3 C 89 % 1015,7 hPa 0,0 l/m 0 min 0 min 0 W/m 6,4 km/h (2 Bft) 95,74 %
02.10.2019 20:12 9,3 C 7,8 C 18,3 C 88 % 1015,8 hPa 0,0 l/m 0 min 0 min 0 W/m 0,0 km/h (0 Bft) 95,74 %
02.10.2019 20:14 9,2 C 7,8 C 18,3 C 88 % 1015,8 hPa 0,0 l/m 0 min 0 min 0 W/m 3,2 km/h (1 Bft) 97,87 %
02.10.2019 20:16 9,2 C 7,8 C 18,3 C 89 % 1015,9 hPa 0,0 l/m 0 min 0 min 0 W/m 0,0 km/h (0 Bft) 97,87 %
02.10.2019 20:18 9,2 C 7,8 C 18,3 C 89 % 1015,8 hPa 0,0 l/m 0 min 0 min 0 W/m 6,4 km/h (2 Bft) 97,83 %
02.10.2019 20:20 9,1 C 8,3 C 18,3 C 89 % 1015,9 hPa 0,0 l/m 0 min 0 min 0 W/m 3,2 km/h (1 Bft) 95,74 %
02.10.2019 20:22 9,1 C 8,3 C 18,3 C 89 % 1016,0 hPa 0,0 l/m 0 min 0 min 0 W/m 6,4 km/h (2 Bft) 97,87 %
02.10.2019 20:24 9,1 C 7,8 C 18,3 C 89 % 1016,0 hPa 0,0 l/m 0 min 0 min 0 W/m 0,0 km/h (0 Bft) 97,87 %
02.10.2019 20:26 9,1 C 7,8 C 18,3 C 89 % 1016,0 hPa 0,0 l/m 0 min 0 min 0 W/m 9,7 km/h (2 Bft) 97,87 %
02.10.2019 20:28 9,1 C 8,3 C 18,3 C 89 % 1016,1 hPa 0,0 l/m 0 min 0 min 0 W/m 6,4 km/h (2 Bft) 100,00 %
02.10.2019 20:30 9,1 C 8,3 C 18,3 C 89 % 1016,2 hPa 0,0 l/m 0 min 0 min 0 W/m 0,0 km/h (0 Bft) 100,00 %
02.10.2019 20:32 9,1 C 8,3 C 18,3 C 89 % 1016,1 hPa 0,0 l/m 0 min 0 min 0 W/m 3,2 km/h (1 Bft) 97,87 %
02.10.2019 20:34 9,1 C 8,3 C 18,3 C 89 % 1016,1 hPa 0,0 l/m 0 min 0 min 0 W/m 3,2 km/h (1 Bft) 100,00 %
02.10.2019 20:36 9,1 C 8,3 C 18,3 C 89 % 1016,1 hPa 0,0 l/m 0 min 0 min 0 W/m 6,4 km/h (2 Bft) 100,00 %
02.10.2019 20:38 9,1 C 8,3 C 18,3 C 90 % 1016,1 hPa 0,0 l/m 0 min 0 min 0 W/m 3,2 km/h (1 Bft) 100,00 %
02.10.2019 20:40 9,1 C 8,3 C 18,3 C 90 % 1016,2 hPa 0,0 l/m 0 min 0 min 0 W/m 9,7 km/h (2 Bft) 97,87 %
02.10.2019 20:42 9,1 C 8,3 C 18,3 C 90 % 1016,1 hPa 0,0 l/m 0 min 0 min 0 W/m 6,4 km/h (2 Bft) 100,00 %
02.10.2019 20:44 9,0 C 8,3 C 18,3 C 90 % 1016,1 hPa 0,0 l/m 0 min 0 min 0 W/m 3,2 km/h (1 Bft) 95,74 %
02.10.2019 20:46 9,0 C 8,3 C 18,3 C 90 % 1016,1 hPa 0,0 l/m 0 min 0 min 0 W/m 3,2 km/h (1 Bft) 100,00 %
02.10.2019 20:48 9,0 C 8,3 C 18,3 C 90 % 1016,2 hPa 0,0 l/m 0 min 0 min 0 W/m 6,4 km/h (2 Bft) 97,87 %
02.10.2019 20:50 9,0 C 8,3 C 18,3 C 90 % 1016,2 hPa 0,0 l/m 0 min 0 min 0 W/m 12,9 km/h (3 Bft) 100,00 %
02.10.2019 20:52 9,0 C 8,3 C 18,3 C 90 % 1016,3 hPa 0,0 l/m 0 min 0 min 0 W/m 3,2 km/h (1 Bft) 100,00 %
02.10.2019 20:54 9,0 C 8,3 C 18,3 C 90 % 1016,3 hPa 0,0 l/m 0 min 0 min 0 W/m 3,2 km/h (1 Bft) 100,00 %
02.10.2019 20:56 9,0 C 8,3 C 18,3 C 90 % 1016,3 hPa 0,0 l/m 0 min 0 min 0 W/m 9,7 km/h (2 Bft) 100,00 %
02.10.2019 20:58 9,0 C 8,3 C 18,3 C 90 % 1016,3 hPa 0,0 l/m 0 min 0 min 0 W/m 9,7 km/h (2 Bft) 100,00 %
02.10.2019 21:00 9,0 C 8,3 C 18,3 C 90 % 1016,3 hPa 0,0 l/m 0 min 0 min 0 W/m 6,4 km/h (2 Bft) 100,00 %
02.10.2019 21:02 9,0 C 8,3 C 18,3 C 91 % 1016,3 hPa 0,0 l/m 0 min 0 min 0 W/m 6,4 km/h (2 Bft) 100,00 %
02.10.2019 21:04 9,0 C 8,3 C 18,3 C 91 % 1016,3 hPa 0,0 l/m 0 min 0 min 0 W/m 0,0 km/h (0 Bft) 100,00 %
02.10.2019 21:06 9,0 C 8,3 C 18,3 C 91 % 1016,4 hPa 0,0 l/m 0 min 0 min 0 W/m 12,9 km/h (3 Bft) 97,87 %
02.10.2019 21:08 9,0 C 8,3 C 18,3 C 90 % 1016,4 hPa 0,0 l/m 0 min 0 min 0 W/m 3,2 km/h (1 Bft) 100,00 %
02.10.2019 21:10 9,0 C 7,8 C 18,3 C 91 % 1016,4 hPa 0,0 l/m 0 min 0 min 0 W/m 6,4 km/h (2 Bft) 97,87 %
02.10.2019 21:12 9,0 C 7,8 C 18,3 C 90 % 1016,5 hPa 0,0 l/m 0 min 0 min 0 W/m 3,2 km/h (1 Bft) 97,87 %
02.10.2019 21:14 8,9 C 7,8 C 18,3 C 91 % 1016,5 hPa 0,0 l/m 0 min 0 min 0 W/m 3,2 km/h (1 Bft) 100,00 %
02.10.2019 21:16 8,9 C 7,8 C 18,3 C 91 % 1016,5 hPa 0,0 l/m 0 min 0 min 0 W/m 6,4 km/h (2 Bft) 97,83 %
02.10.2019 21:18 8,9 C 7,8 C 18,3 C 91 % 1016,5 hPa 0,0 l/m 0 min 0 min 0 W/m 9,7 km/h (2 Bft) 97,87 %
02.10.2019 21:20 8,9 C 7,8 C 18,3 C 91 % 1016,5 hPa 0,0 l/m 0 min 0 min 0 W/m 3,2 km/h (1 Bft) 95,74 %
02.10.2019 21:22 8,9 C 7,8 C 18,3 C 91 % 1016,6 hPa 0,0 l/m 0 min 0 min 0 W/m 9,7 km/h (2 Bft) 97,87 %
02.10.2019 21:24 8,9 C 7,8 C 18,3 C 91 % 1016,5 hPa 0,0 l/m 0 min 0 min 0 W/m 6,4 km/h (2 Bft) 97,87 %
02.10.2019 21:26 8,9 C 7,8 C 18,3 C 91 % 1016,6 hPa 0,0 l/m 0 min 0 min 0 W/m 3,2 km/h (1 Bft) 97,87 %
02.10.2019 21:28 8,9 C 7,8 C 18,3 C 91 % 1016,6 hPa 0,0 l/m 0 min 0 min 0 W/m 16,1 km/h (3 Bft) 97,83 %
02.10.2019 21:30 8,9 C 7,8 C 18,3 C 91 % 1016,6 hPa 0,0 l/m 0 min 0 min 0 W/m 3,2 km/h (1 Bft) 95,74 %
02.10.2019 21:32 8,9 C 7,8 C 18,3 C 91 % 1016,7 hPa 0,0 l/m 0 min 0 min 0 W/m 3,2 km/h (1 Bft) 97,87 %
02.10.2019 21:34 8,9 C 7,8 C 18,3 C 91 % 1016,7 hPa 0,0 l/m 0 min 0 min 0 W/m 6,4 km/h (2 Bft) 97,87 %
02.10.2019 21:36 8,9 C 7,8 C 18,3 C 91 % 1016,7 hPa 0,0 l/m 0 min 0 min 0 W/m 9,7 km/h (2 Bft) 97,87 %
02.10.2019 21:38 8,9 C 7,8 C 18,3 C 92 % 1016,7 hPa 0,0 l/m 0 min 0 min 0 W/m 3,2 km/h (1 Bft) 97,87 %
02.10.2019 21:40 8,8 C 7,8 C 18,3 C 92 % 1016,8 hPa 0,0 l/m 0 min 0 min 0 W/m 6,4 km/h (2 Bft) 97,83 %
02.10.2019 21:42 8,8 C 7,8 C 18,3 C 92 % 1016,8 hPa 0,0 l/m 0 min 0 min 0 W/m 6,4 km/h (2 Bft) 97,87 %
02.10.2019 21:44 8,8 C 7,8 C 18,3 C 92 % 1016,8 hPa 0,0 l/m 0 min 0 min 0 W/m 6,4 km/h (2 Bft) 97,87 %
02.10.2019 21:46 8,8 C 7,8 C 18,3 C 92 % 1016,8 hPa 0,0 l/m 0 min 0 min 0 W/m 6,4 km/h (2 Bft) 97,87 %
02.10.2019 21:48 8,8 C 7,8 C 18,3 C 92 % 1016,9 hPa 0,0 l/m 0 min 0 min 0 W/m 12,9 km/h (3 Bft) 97,87 %
02.10.2019 21:50 8,8 C 8,3 C 18,3 C 92 % 1016,9 hPa 0,0 l/m 0 min 0 min 0 W/m 6,4 km/h (2 Bft) 97,83 %
02.10.2019 21:52 8,8 C 7,8 C 18,3 C 92 % 1016,9 hPa 0,0 l/m 0 min 0 min 0 W/m 6,4 km/h (2 Bft) 97,87 %
02.10.2019 21:54 8,8 C 7,8 C 18,3 C 92 % 1016,9 hPa 0,0 l/m 0 min 0 min 0 W/m 3,2 km/h (1 Bft) 97,87 %
02.10.2019 21:56 8,8 C 7,8 C 18,3 C 92 % 1017,0 hPa 0,0 l/m 0 min 0 min 0 W/m 12,9 km/h (3 Bft) 97,87 %
02.10.2019 21:58 8,8 C 7,8 C 18,3 C 92 % 1016,9 hPa 0,0 l/m 0 min 0 min 0 W/m 16,1 km/h (3 Bft) 97,87 %
02.10.2019 22:00 8,8 C 7,8 C 18,3 C 92 % 1016,9 hPa 0,0 l/m 0 min 0 min 0 W/m 6,4 km/h (2 Bft) 97,87 %
02.10.2019 22:02 8,8 C 7,8 C 18,3 C 92 % 1017,0 hPa 0,0 l/m 0 min 0 min 0 W/m 3,2 km/h (1 Bft) 97,87 %
02.10.2019 22:04 8,8 C 7,8 C 18,3 C 92 % 1017,0 hPa 0,0 l/m 0 min 0 min 0 W/m 12,9 km/h (3 Bft) 97,83 %
02.10.2019 22:06 8,8 C 7,8 C 18,3 C 92 % 1017,0 hPa 0,0 l/m 0 min 0 min 0 W/m 6,4 km/h (2 Bft) 100,00 %
02.10.2019 22:08 8,8 C 7,8 C 18,3 C 92 % 1017,0 hPa 0,0 l/m 0 min 0 min 0 W/m 6,4 km/h (2 Bft) 97,87 %
02.10.2019 22:10 8,8 C 8,3 C 18,3 C 92 % 1017,1 hPa 0,0 l/m 0 min 0 min 0 W/m 12,9 km/h (3 Bft) 100,00 %
02.10.2019 22:12 8,8 C 7,8 C 18,3 C 92 % 1017,1 hPa 0,0 l/m 0 min 0 min 0 W/m 6,4 km/h (2 Bft) 97,87 %
02.10.2019 22:14 8,8 C 8,3 C 18,3 C 92 % 1017,1 hPa 0,0 l/m 0 min 0 min 0 W/m 9,7 km/h (2 Bft) 100,00 %
02.10.2019 22:16 8,8 C 8,3 C 18,3 C 92 % 1017,1 hPa 0,0 l/m 0 min 0 min 0 W/m 6,4 km/h (2 Bft) 100,00 %
02.10.2019 22:18 8,8 C 7,8 C 18,3 C 92 % 1017,1 hPa 0,0 l/m 0 min 0 min 0 W/m 6,4 km/h (2 Bft) 100,00 %
02.10.2019 22:20 8,8 C 7,8 C 18,3 C 92 % 1017,2 hPa 0,0 l/m 0 min 0 min 0 W/m 3,2 km/h (1 Bft) 100,00 %
02.10.2019 22:22 8,8 C 7,8 C 18,3 C 92 % 1017,2 hPa 0,0 l/m 0 min 0 min 0 W/m 9,7 km/h (2 Bft) 100,00 %
02.10.2019 22:24 8,8 C 7,8 C 18,3 C 92 % 1017,2 hPa 0,0 l/m 0 min 0 min 0 W/m 3,2 km/h (1 Bft) 100,00 %
02.10.2019 22:26 8,8 C 7,8 C 18,3 C 92 % 1017,2 hPa 0,0 l/m 0 min 0 min 0 W/m 6,4 km/h (2 Bft) 100,00 %
02.10.2019 22:28 8,7 C 7,8 C 18,3 C 92 % 1017,3 hPa 0,0 l/m 0 min 0 min 0 W/m 6,4 km/h (2 Bft) 100,00 %
02.10.2019 22:30 8,7 C 7,8 C 18,3 C 92 % 1017,3 hPa 0,0 l/m 0 min 0 min 0 W/m 6,4 km/h (2 Bft) 100,00 %
02.10.2019 22:32 8,7 C 7,8 C 18,3 C 92 % 1017,4 hPa 0,0 l/m 0 min 0 min 0 W/m 6,4 km/h (2 Bft) 100,00 %
02.10.2019 22:34 8,7 C 7,8 C 18,3 C 93 % 1017,4 hPa 0,0 l/m 0 min 0 min 0 W/m 6,4 km/h (2 Bft) 95,74 %
02.10.2019 22:36 8,7 C 7,8 C 18,3 C 93 % 1017,4 hPa 0,0 l/m 0 min 0 min 0 W/m 6,4 km/h (2 Bft) 100,00 %
02.10.2019 22:38 8,7 C 7,8 C 18,3 C 93 % 1017,4 hPa 0,0 l/m 0 min 0 min 0 W/m 3,2 km/h (1 Bft) 97,83 %
02.10.2019 22:40 8,7 C 7,8 C 18,3 C 93 % 1017,4 hPa 0,0 l/m 0 min 0 min 0 W/m 3,2 km/h (1 Bft) 95,74 %
02.10.2019 22:42 8,7 C 7,8 C 18,3 C 93 % 1017,5 hPa 0,0 l/m 0 min 0 min 0 W/m 9,7 km/h (2 Bft) 95,74 %
02.10.2019 22:44 8,7 C 8,3 C 18,3 C 93 % 1017,5 hPa 0,0 l/m 0 min 0 min 0 W/m 3,2 km/h (1 Bft) 97,87 %
02.10.2019 22:46 8,8 C 8,3 C 18,3 C 93 % 1017,5 hPa 0,0 l/m 0 min 0 min 0 W/m 9,7 km/h (2 Bft) 97,87 %
02.10.2019 22:48 8,8 C 8,3 C 18,3 C 93 % 1017,5 hPa 0,0 l/m 0 min 0 min 0 W/m 9,7 km/h (2 Bft) 97,87 %
02.10.2019 22:52 8,8 C 8,3 C 10,0 C 93 % 1017,6 hPa 0,0 l/m 0 min 0 min 0 W/m 9,7 km/h (2 Bft) 97,87 %
02.10.2019 22:54 8,8 C 8,3 C 10,0 C 93 % 1017,6 hPa 0,0 l/m 0 min 0 min 0 W/m 3,2 km/h (1 Bft) 97,87 %
02.10.2019 22:58 8,8 C 7,8 C 10,0 C 93 % 1017,7 hPa 0,0 l/m 0 min 0 min 0 W/m 6,4 km/h (2 Bft) 96,34 %
02.10.2019 23:00 8,8 C 7,8 C 10,0 C 93 % 1017,7 hPa 0,0 l/m 0 min 0 min 0 W/m 9,7 km/h (2 Bft) 93,22 %
02.10.2019 23:02 8,8 C 7,8 C 10,0 C 93 % 1017,8 hPa 0,0 l/m 0 min 0 min 0 W/m 3,2 km/h (1 Bft) 97,67 %
02.10.2019 23:04 8,8 C 7,8 C 10,0 C 93 % 1017,7 hPa 0,0 l/m 0 min 0 min 0 W/m 3,2 km/h (1 Bft) 91,84 %
02.10.2019 23:06 8,8 C 7,8 C 10,0 C 93 % 1017,8 hPa 0,0 l/m 0 min 0 min 0 W/m 9,7 km/h (2 Bft) 95,83 %
02.10.2019 23:08 8,8 C 7,8 C 10,0 C 93 % 1017,7 hPa 0,0 l/m 0 min 0 min 0 W/m 6,4 km/h (2 Bft) 95,74 %
02.10.2019 23:10 8,8 C 7,8 C 10,0 C 93 % 1017,7 hPa 0,0 l/m 0 min 0 min 0 W/m 3,2 km/h (1 Bft) 95,35 %
02.10.2019 23:12 8,8 C 7,8 C 10,0 C 93 % 1017,7 hPa 0,0 l/m 0 min 0 min 0 W/m 9,7 km/h (2 Bft) 96,00 %
02.10.2019 23:14 8,8 C 8,3 C 10,0 C 93 % 1017,7 hPa 0,0 l/m 0 min 0 min 0 W/m 6,4 km/h (2 Bft) 93,62 %
02.10.2019 23:16 8,8 C 8,3 C 10,0 C 93 % 1017,7 hPa 0,0 l/m 0 min 0 min 0 W/m 6,4 km/h (2 Bft) 95,74 %
02.10.2019 23:18 8,8 C 8,3 C 10,0 C 93 % 1017,8 hPa 0,0 l/m 0 min 0 min 0 W/m 6,4 km/h (2 Bft) 95,35 %
02.10.2019 23:20 8,9 C 8,3 C 10,0 C 93 % 1017,8 hPa 0,0 l/m 0 min 0 min 0 W/m 9,7 km/h (2 Bft) 96,00 %
02.10.2019 23:22 8,9 C 8,3 C 10,0 C 93 % 1017,8 hPa 0,0 l/m 0 min 0 min 0 W/m 3,2 km/h (1 Bft) 97,92 %
02.10.2019 23:24 8,9 C 8,3 C 10,0 C 94 % 1017,8 hPa 0,0 l/m 0 min 0 min 0 W/m 6,4 km/h (2 Bft) 95,65 %
02.10.2019 23:26 8,9 C 8,3 C 10,0 C 94 % 1017,8 hPa 0,0 l/m 0 min 0 min 0 W/m 9,7 km/h (2 Bft) 97,73 %
02.10.2019 23:28 8,9 C 8,3 C 10,0 C 94 % 1017,8 hPa 0,0 l/m 0 min 0 min 0 W/m 16,1 km/h (3 Bft) 97,96 %
02.10.2019 23:30 8,9 C 8,3 C 10,0 C 94 % 1017,8 hPa 0,0 l/m 0 min 0 min 0 W/m 6,4 km/h (2 Bft) 97,87 %
02.10.2019 23:32 8,9 C 8,3 C 10,0 C 94 % 1017,8 hPa 0,0 l/m 0 min 0 min 0 W/m 3,2 km/h (1 Bft) 79,17 %
02.10.2019 23:34 9,0 C 8,3 C 10,0 C 94 % 1017,9 hPa 0,0 l/m 0 min 0 min 0 W/m 9,7 km/h (2 Bft) 69,23 %
02.10.2019 23:36 9,0 C 8,3 C 10,0 C 94 % 1017,9 hPa 0,0 l/m 0 min 0 min 0 W/m 6,4 km/h (2 Bft) 97,67 %
02.10.2019 23:38 9,0 C 8,3 C 10,0 C 94 % 1017,9 hPa 0,0 l/m 0 min 0 min 0 W/m 3,2 km/h (1 Bft) 93,88 %
02.10.2019 23:40 9,0 C 8,3 C 10,0 C 94 % 1017,9 hPa 0,0 l/m 0 min 0 min 0 W/m 9,7 km/h (2 Bft) 95,83 %
02.10.2019 23:42 9,0 C 8,3 C 10,0 C 94 % 1017,9 hPa 0,0 l/m 0 min 0 min 0 W/m 6,4 km/h (2 Bft) 97,87 %
02.10.2019 23:44 9,0 C 8,3 C 10,0 C 94 % 1017,9 hPa 0,0 l/m 0 min 0 min 0 W/m 6,4 km/h (2 Bft) 97,87 %
02.10.2019 23:46 9,0 C 8,3 C 10,0 C 94 % 1018,0 hPa 0,0 l/m 0 min 0 min 0 W/m 3,2 km/h (1 Bft) 97,67 %
02.10.2019 23:48 9,0 C 8,3 C 10,0 C 94 % 1018,0 hPa 0,0 l/m 0 min 0 min 0 W/m 6,4 km/h (2 Bft) 96,00 %
02.10.2019 23:50 9,0 C 8,3 C 10,0 C 94 % 1018,0 hPa 0,0 l/m 0 min 0 min 0 W/m 9,7 km/h (2 Bft) 91,49 %
02.10.2019 23:52 9,0 C 8,3 C 10,0 C 94 % 1018,0 hPa 0,0 l/m 0 min 0 min 0 W/m 9,7 km/h (2 Bft) 93,62 %
02.10.2019 23:54 9,0 C 8,3 C 10,0 C 94 % 1018,1 hPa 0,0 l/m 0 min 0 min 0 W/m 9,7 km/h (2 Bft) 95,35 %
02.10.2019 23:56 9,0 C 8,3 C 10,0 C 94 % 1018,1 hPa 0,0 l/m 0 min 0 min 0 W/m 3,2 km/h (1 Bft) 96,00 %
02.10.2019 23:58 8,9 C 8,3 C 10,0 C 94 % 1018,2 hPa 0,0 l/m 0 min 0 min 0 W/m 6,4 km/h (2 Bft) 95,83 %
_ Min-Zeit 22:28 05:56 22:52 14:12 00:02 - - - - 01:24 23:34
Minimum _ 8,7 C 7,8 C 10,0 C 67 % 999,9 hPa - - - - 0,0 km/h (0 Bft) 69,23 %
_ Max-Zeit 00:00 13:16 00:00 02:04 23:58 00:10 12:08 00:08 13:14 14:48 00:00
Maximum _ 15,2 C 21,7 C 18,3 C 99 % 1018,2 hPa 0,4 l/m 4 min 4 min 804 W/m 32,2 km/h
SW (5 Bft)
100,00 %
Durchschnitt _ 11,3 C 11,5 C 17,9 C 90 % 1010,0 hPa #3,0 l/m #4:46 h #2:08 h 236 W/m 7,9 km/h (2 Bft) 97,39 %
© 2019 W. Hausmann